Time,TemperatureF,DewpointF,PressureIn,WindDirection,WindDirectionDegrees,WindSpeedMPH,WindSpeedGustMPH,Humidity,HourlyPrecipIn,Conditions,Clouds,dailyrainin,SolarRadiationWatts/m^2,SoftwareType,DateUTC
2013-09-08 00:00:00,60.8,58.5,30.07,NNE,23,0.0,0.0,92,0.00,,---,0.00,0.00,VWS V14.01,2013-09-08 07:00:00,
2013-09-08 00:03:00,59.8,58.1,30.08,NNE,24,0.0,0.0,94,0.00,,---,0.00,0.00,VWS V14.01,2013-09-08 07:03:00,
2013-09-08 00:05:00,60.7,58.4,30.07,NNE,23,0.0,0.0,92,0.00,,---,0.00,0.00,VWS V14.01,2013-09-08 07:05:00,
2013-09-08 00:08:00,59.7,58.0,30.08,NNE,23,0.0,0.0,94,0.00,,---,0.00,0.00,VWS V14.01,2013-09-08 07:08:00,
2013-09-08 00:10:00,60.5,58.5,30.07,NNE,23,0.0,0.0,93,0.00,,---,0.00,0.00,VWS V14.01,2013-09-08 07:10:00,
2013-09-08 00:14:00,59.6,58.2,30.08,NNE,24,0.0,0.0,95,0.00,,---,0.00,0.00,VWS V14.01,2013-09-08 07:14:00,
2013-09-08 00:15:00,60.4,58.4,30.07,NNE,23,0.0,0.0,93,0.00,,---,0.00,0.00,VWS V14.01,2013-09-08 07:15:00,
2013-09-08 00:18:00,59.5,58.1,30.08,NNE,24,0.0,0.0,95,0.00,,---,0.00,0.00,VWS V14.01,2013-09-08 07:18:00,
2013-09-08 00:20:00,60.4,58.4,30.08,NNE,23,0.0,0.0,93,0.00,,---,0.00,0.00,VWS V14.01,2013-09-08 07:20:00,
2013-09-08 00:23:00,59.3,57.9,30.08,NNE,23,0.0,0.0,95,0.00,,---,0.00,0.00,VWS V14.01,2013-09-08 07:23:00,
2013-09-08 00:25:00,60.3,58.3,30.08,NNE,24,0.0,0.0,93,0.00,,---,0.00,0.00,VWS V14.01,2013-09-08 07:25:00,
2013-09-08 00:28:00,59.3,57.9,30.08,NNE,24,0.0,0.0,95,0.00,,---,0.00,0.00,VWS V14.01,2013-09-08 07:28:00,
2013-09-08 00:30:00,60.2,58.2,30.08,NNE,24,0.0,0.0,93,0.00,,---,0.00,0.00,VWS V14.01,2013-09-08 07:30:00,
2013-09-08 00:33:00,59.4,58.0,30.08,NNE,23,0.0,0.0,95,0.00,,---,0.00,0.00,VWS V14.01,2013-09-08 07:33:00,
2013-09-08 00:35:00,60.2,58.2,30.08,NNE,23,0.0,0.0,93,0.00,,---,0.00,0.00,VWS V14.01,2013-09-08 07:35:00,
2013-09-08 00:38:00,59.5,58.4,30.08,NNE,24,0.0,0.0,96,0.00,,---,0.00,0.00,VWS V14.01,2013-09-08 07:38:00,
2013-09-08 00:40:00,60.2,58.5,30.08,NNE,24,0.0,0.0,94,0.00,,---,0.00,0.00,VWS V14.01,2013-09-08 07:40:00,
2013-09-08 00:43:00,59.5,58.4,30.08,NNE,23,0.0,0.0,96,0.00,,---,0.00,0.00,VWS V14.01,2013-09-08 07:43:00,
2013-09-08 00:45:00,60.1,58.4,30.08,NNE,24,0.0,0.0,94,0.00,,---,0.00,0.00,VWS V14.01,2013-09-08 07:45:00,
2013-09-08 00:48:00,59.6,58.5,30.08,NNE,24,1.0,1.0,96,0.00,,---,0.00,0.00,VWS V14.01,2013-09-08 07:48:00,
2013-09-08 00:50:00,60.0,58.3,30.08,NNE,23,0.0,0.0,94,0.00,,---,0.00,0.00,VWS V14.01,2013-09-08 07:50:00,
2013-09-08 00:53:00,59.6,58.5,30.08,NNE,23,0.0,1.0,96,0.00,,---,0.00,0.00,VWS V14.01,2013-09-08 07:53:00,
2013-09-08 00:55:00,59.9,58.2,30.07,NNE,24,0.0,0.0,94,0.00,,---,0.00,0.00,VWS V14.01,2013-09-08 07:55:00,
2013-09-08 00:58:00,59.5,58.1,30.08,NNE,23,0.0,0.0,95,0.00,,---,0.00,0.00,VWS V14.01,2013-09-08 07:58:00,
2013-09-08 01:00:00,59.9,58.2,30.08,NNE,23,0.0,0.0,94,0.00,,---,0.00,0.00,VWS V14.01,2013-09-08 08:00:00,
2013-09-08 01:03:00,59.4,58.0,30.08,NNE,24,0.0,0.0,95,0.00,,---,0.00,0.00,VWS V14.01,2013-09-08 08:03:00,
2013-09-08 01:05:00,59.8,58.1,30.08,NNE,24,0.0,0.0,94,0.00,,---,0.00,0.00,VWS V14.01,2013-09-08 08:05:00,
2013-09-08 01:08:00,59.3,57.9,30.08,NNE,23,0.0,0.0,95,0.00,,---,0.00,0.00,VWS V14.01,2013-09-08 08:08:00,
2013-09-08 01:10:00,59.7,58.0,30.08,NNE,23,0.0,0.0,94,0.00,,---,0.00,0.00,VWS V14.01,2013-09-08 08:10:00,
2013-09-08 01:13:00,59.3,58.2,30.08,NNE,24,0.0,1.0,96,0.00,,---,0.00,0.00,VWS V14.01,2013-09-08 08:13:00,
2013-09-08 01:15:00,59.6,58.2,30.08,NNE,24,0.0,0.0,95,0.00,,---,0.00,0.00,VWS V14.01,2013-09-08 08:15:00,
2013-09-08 01:18:00,59.2,58.1,30.08,NNE,23,0.0,0.0,96,0.00,,---,0.00,0.00,VWS V14.01,2013-09-08 08:18:00,
2013-09-08 01:20:00,59.5,58.1,30.08,NNE,24,0.0,0.0,95,0.00,,---,0.00,0.00,VWS V14.01,2013-09-08 08:20:00,
2013-09-08 01:23:00,59.1,58.0,30.08,NNE,24,0.0,0.0,96,0.00,,---,0.00,0.00,VWS V14.01,2013-09-08 08:23:00,
2013-09-08 01:25:00,59.3,57.9,30.08,NNE,23,0.0,0.0,95,0.00,,---,0.00,0.00,VWS V14.01,2013-09-08 08:25:00,
2013-09-08 01:28:00,58.8,57.7,30.08,NNE,23,0.0,0.0,96,0.00,,---,0.00,0.00,VWS V14.01,2013-09-08 08:28:00,
2013-09-08 01:30:00,59.3,57.9,30.08,NNE,24,0.0,0.0,95,0.00,,---,0.00,0.00,VWS V14.01,2013-09-08 08:30:00,
2013-09-08 01:33:00,58.4,57.3,30.09,NNE,24,0.0,0.0,96,0.00,,---,0.00,0.00,VWS V14.01,2013-09-08 08:33:00,
2013-09-08 01:35:00,59.4,58.0,30.08,NNE,24,0.0,0.0,95,0.00,,---,0.00,0.00,VWS V14.01,2013-09-08 08:35:00,
2013-09-08 01:38:00,58.5,57.4,30.09,NNE,23,0.0,1.0,96,0.00,,---,0.00,0.00,VWS V14.01,2013-09-08 08:38:00,
2013-09-08 01:40:00,59.5,58.4,30.08,NNE,24,0.0,0.0,96,0.00,,---,0.00,0.00,VWS V14.01,2013-09-08 08:40:00,
2013-09-08 01:43:00,58.6,57.8,30.09,NNE,23,0.0,0.0,97,0.00,,---,0.00,0.00,VWS V14.01,2013-09-08 08:43:00,
2013-09-08 01:45:00,59.5,58.4,30.08,NNE,23,0.0,0.0,96,0.00,,---,0.00,0.00,VWS V14.01,2013-09-08 08:45:00,
2013-09-08 01:48:00,58.7,57.8,30.09,NNE,24,0.0,1.0,97,0.00,,---,0.00,0.00,VWS V14.01,2013-09-08 08:48:00,
2013-09-08 01:50:00,59.6,58.5,30.08,NNE,24,1.0,1.0,96,0.00,,---,0.00,0.00,VWS V14.01,2013-09-08 08:50:00,
2013-09-08 01:53:00,58.7,57.8,30.09,NNE,24,1.0,2.0,97,0.00,,---,0.00,0.00,VWS V14.01,2013-09-08 08:53:00,
2013-09-08 01:55:00,59.6,58.5,30.08,NNE,23,0.0,1.0,96,0.00,,---,0.00,0.00,VWS V14.01,2013-09-08 08:55:00,
2013-09-08 01:58:00,58.9,58.0,30.09,NNE,18,0.0,2.0,97,0.00,,---,0.00,0.00,VWS V14.01,2013-09-08 08:58:00,
2013-09-08 02:00:00,59.5,58.1,30.08,NNE,23,0.0,0.0,95,0.00,,---,0.00,0.00,VWS V14.01,2013-09-08 09:00:00,
2013-09-08 02:03:00,59.0,58.2,30.08,NNE,19,0.0,0.0,97,0.00,,---,0.00,0.00,VWS V14.01,2013-09-08 09:03:00,
2013-09-08 02:05:00,59.4,58.0,30.08,NNE,23,0.0,0.0,95,0.00,,---,0.00,0.00,VWS V14.01,2013-09-08 09:05:00,
2013-09-08 02:08:00,58.9,58.0,30.08,NNE,19,0.0,1.0,97,0.00,,---,0.00,0.00,VWS V14.01,2013-09-08 09:08:00,
2013-09-08 02:10:00,59.3,57.9,30.08,NNE,23,0.0,0.0,95,0.00,,---,0.00,0.00,VWS V14.01,2013-09-08 09:10:00,
2013-09-08 02:13:00,58.6,57.5,30.08,NNE,18,0.0,1.0,96,0.00,,---,0.00,0.00,VWS V14.01,2013-09-08 09:13:00,
2013-09-08 02:15:00,59.3,58.2,30.08,NNE,24,0.0,1.0,96,0.00,,---,0.00,0.00,VWS V14.01,2013-09-08 09:15:00,
2013-09-08 02:18:00,58.5,57.4,30.09,NNE,19,0.0,0.0,96,0.00,,---,0.00,0.00,VWS V14.01,2013-09-08 09:18:00,
2013-09-08 02:20:00,59.2,58.1,30.08,NNE,24,0.0,0.0,96,0.00,,---,0.00,0.00,VWS V14.01,2013-09-08 09:20:00,
2013-09-08 02:23:00,58.5,57.7,30.09,NNE,19,0.0,0.0,97,0.00,,---,0.00,0.00,VWS V14.01,2013-09-08 09:23:00,
2013-09-08 02:25:00,59.1,58.0,30.08,NNE,24,0.0,0.0,96,0.00,,---,0.00,0.00,VWS V14.01,2013-09-08 09:25:00,
2013-09-08 02:28:00,58.4,57.3,30.09,NNE,18,0.0,0.0,96,0.00,,---,0.00,0.00,VWS V14.01,2013-09-08 09:28:00,
2013-09-08 02:30:00,58.8,57.7,30.08,NNE,23,0.0,0.0,96,0.00,,---,0.00,0.00,VWS V14.01,2013-09-08 09:30:00,
2013-09-08 02:33:00,58.2,57.1,30.09,NNE,18,0.0,0.0,96,0.00,,---,0.00,0.00,VWS V14.01,2013-09-08 09:33:00,
2013-09-08 02:35:00,58.4,57.3,30.09,NNE,24,0.0,0.0,96,0.00,,---,0.00,0.00,VWS V14.01,2013-09-08 09:35:00,
2013-09-08 02:38:00,57.9,56.8,30.09,NNE,18,0.0,0.0,96,0.00,,---,0.00,0.00,VWS V14.01,2013-09-08 09:38:00,
2013-09-08 02:40:00,58.5,57.4,30.09,NNE,24,0.0,1.0,96,0.00,,---,0.00,0.00,VWS V14.01,2013-09-08 09:40:00,
2013-09-08 02:43:00,57.8,57.0,30.09,NNE,19,0.0,0.0,97,0.00,,---,0.00,0.00,VWS V14.01,2013-09-08 09:43:00,
2013-09-08 02:45:00,58.6,57.8,30.09,NNE,23,0.0,0.0,97,0.00,,---,0.00,0.00,VWS V14.01,2013-09-08 09:45:00,
2013-09-08 02:48:00,57.7,56.9,30.09,NNE,19,0.0,0.0,97,0.00,,---,0.00,0.00,VWS V14.01,2013-09-08 09:48:00,
2013-09-08 02:50:00,58.7,57.8,30.09,NNE,24,0.0,1.0,97,0.00,,---,0.00,0.00,VWS V14.01,2013-09-08 09:50:00,
2013-09-08 02:53:00,57.8,57.0,30.09,NNE,19,0.0,1.0,97,0.00,,---,0.00,0.00,VWS V14.01,2013-09-08 09:53:00,
2013-09-08 02:55:00,58.7,57.8,30.09,NNE,24,1.0,2.0,97,0.00,,---,0.00,0.00,VWS V14.01,2013-09-08 09:55:00,
2013-09-08 02:58:00,57.8,57.0,30.09,NNE,19,0.0,2.0,97,0.00,,---,0.00,0.00,VWS V14.01,2013-09-08 09:58:00,
2013-09-08 03:00:00,58.9,58.0,30.09,NNE,18,0.0,2.0,97,0.00,,---,0.00,0.00,VWS V14.01,2013-09-08 10:00:00,
2013-09-08 03:03:00,57.8,57.0,30.09,NNE,18,0.0,1.0,97,0.00,,---,0.00,0.00,VWS V14.01,2013-09-08 10:03:00,
2013-09-08 03:05:00,59.0,58.2,30.08,NNE,19,0.0,0.0,97,0.00,,---,0.00,0.00,VWS V14.01,2013-09-08 10:05:00,
2013-09-08 03:08:00,57.7,56.9,30.09,NNE,18,0.0,0.0,97,0.00,,---,0.00,0.00,VWS V14.01,2013-09-08 10:08:00,
2013-09-08 03:10:00,58.9,58.0,30.08,NNE,18,0.0,1.0,97,0.00,,---,0.00,0.00,VWS V14.01,2013-09-08 10:10:00,
2013-09-08 03:13:00,57.6,56.8,30.09,NNE,18,0.0,1.0,97,0.00,,---,0.00,0.00,VWS V14.01,2013-09-08 10:13:00,
2013-09-08 03:15:00,58.6,57.5,30.08,NNE,18,0.0,1.0,96,0.00,,---,0.00,0.00,VWS V14.01,2013-09-08 10:15:00,
2013-09-08 03:18:00,57.5,56.7,30.09,NNE,19,0.0,0.0,97,0.00,,---,0.00,0.00,VWS V14.01,2013-09-08 10:18:00,
2013-09-08 03:20:00,58.5,57.4,30.09,NNE,18,0.0,0.0,96,0.00,,---,0.00,0.00,VWS V14.01,2013-09-08 10:20:00,
2013-09-08 03:23:00,57.5,56.7,30.09,NNE,19,0.0,0.0,97,0.00,,---,0.00,0.00,VWS V14.01,2013-09-08 10:23:00,
2013-09-08 03:25:00,58.5,57.7,30.09,NNE,19,0.0,0.0,97,0.00,,---,0.00,0.00,VWS V14.01,2013-09-08 10:25:00,
2013-09-08 03:28:00,57.5,56.7,30.09,NNE,18,0.0,0.0,97,0.00,,---,0.00,0.00,VWS V14.01,2013-09-08 10:28:00,
2013-09-08 03:30:00,58.4,57.3,30.09,NNE,18,0.0,0.0,96,0.00,,---,0.00,0.00,VWS V14.01,2013-09-08 10:30:00,
2013-09-08 03:33:00,57.5,56.7,30.09,NNE,18,0.0,0.0,97,0.00,,---,0.00,0.00,VWS V14.01,2013-09-08 10:33:00,
2013-09-08 03:35:00,58.2,57.1,30.09,NNE,18,0.0,0.0,96,0.00,,---,0.00,0.00,VWS V14.01,2013-09-08 10:35:00,
2013-09-08 03:38:00,57.3,56.5,30.10,NNE,19,0.0,0.0,97,0.00,,---,0.00,0.00,VWS V14.01,2013-09-08 10:38:00,
2013-09-08 03:40:00,57.9,56.8,30.09,NNE,18,0.0,0.0,96,0.00,,---,0.00,0.00,VWS V14.01,2013-09-08 10:40:00,
2013-09-08 03:43:00,56.9,56.1,30.10,NNE,19,0.0,0.0,97,0.00,,---,0.00,0.00,VWS V14.01,2013-09-08 10:43:00,
2013-09-08 03:45:00,57.8,57.0,30.09,NNE,19,0.0,0.0,97,0.00,,---,0.00,0.00,VWS V14.01,2013-09-08 10:45:00,
2013-09-08 03:48:00,56.9,56.3,30.10,NNE,19,0.0,0.0,98,0.00,,---,0.00,0.00,VWS V14.01,2013-09-08 10:48:00,
2013-09-08 03:50:00,57.7,56.9,30.09,NNE,19,0.0,0.0,97,0.00,,---,0.00,0.00,VWS V14.01,2013-09-08 10:50:00,
2013-09-08 03:53:00,57.0,56.4,30.10,NNE,19,0.0,0.0,98,0.00,,---,0.00,0.00,VWS V14.01,2013-09-08 10:53:00,
2013-09-08 03:55:00,57.8,57.0,30.09,NNE,19,0.0,1.0,97,0.00,,---,0.00,0.00,VWS V14.01,2013-09-08 10:55:00,
2013-09-08 03:58:00,57.1,56.5,30.10,NNE,19,0.0,0.0,98,0.00,,---,0.00,0.00,VWS V14.01,2013-09-08 10:58:00,
2013-09-08 04:00:00,57.8,57.0,30.09,NNE,19,0.0,2.0,97,0.00,,---,0.00,0.00,VWS V14.01,2013-09-08 11:00:00,
2013-09-08 04:03:00,57.2,56.6,30.10,NNE,18,0.0,0.0,98,0.00,,---,0.00,0.00,VWS V14.01,2013-09-08 11:03:00,
2013-09-08 04:05:00,57.8,57.0,30.09,NNE,18,0.0,1.0,97,0.00,,---,0.00,0.00,VWS V14.01,2013-09-08 11:05:00,
2013-09-08 04:08:00,57.3,56.7,30.10,NNE,19,0.0,0.0,98,0.00,,---,0.00,0.00,VWS V14.01,2013-09-08 11:08:00,
2013-09-08 04:10:00,57.7,56.9,30.09,NNE,18,0.0,0.0,97,0.00,,---,0.00,0.00,VWS V14.01,2013-09-08 11:10:00,
2013-09-08 04:13:00,57.4,56.8,30.10,NNE,19,0.0,0.0,98,0.00,,---,0.00,0.00,VWS V14.01,2013-09-08 11:13:00,
2013-09-08 04:15:00,57.6,56.8,30.09,NNE,18,0.0,1.0,97,0.00,,---,0.00,0.00,VWS V14.01,2013-09-08 11:15:00,
2013-09-08 04:18:00,57.5,56.9,30.10,NNE,19,0.0,1.0,98,0.00,,---,0.00,0.00,VWS V14.01,2013-09-08 11:18:00,
2013-09-08 04:20:00,57.6,56.8,30.09,NNE,18,0.0,0.0,97,0.00,,---,0.00,0.00,VWS V14.01,2013-09-08 11:20:00,
2013-09-08 04:23:00,57.5,56.9,30.10,NNE,19,0.0,0.0,98,0.00,,---,0.00,0.00,VWS V14.01,2013-09-08 11:23:00,
2013-09-08 04:25:00,57.5,56.7,30.09,NNE,19,0.0,0.0,97,0.00,,---,0.00,0.00,VWS V14.01,2013-09-08 11:25:00,
2013-09-08 04:28:00,57.5,56.9,30.09,NNE,19,0.0,0.0,98,0.00,,---,0.00,0.00,VWS V14.01,2013-09-08 11:28:00,
2013-09-08 04:30:00,57.5,56.7,30.09,NNE,18,0.0,0.0,97,0.00,,---,0.00,0.00,VWS V14.01,2013-09-08 11:30:00,
2013-09-08 04:33:00,57.5,56.9,30.09,NNE,21,1.0,1.0,98,0.00,,---,0.00,0.00,VWS V14.01,2013-09-08 11:33:00,
2013-09-08 04:35:00,57.5,56.7,30.09,NNE,18,0.0,0.0,97,0.00,,---,0.00,0.00,VWS V14.01,2013-09-08 11:35:00,
2013-09-08 04:38:00,57.5,56.9,30.09,NNE,29,0.0,1.0,98,0.00,,---,0.00,0.00,VWS V14.01,2013-09-08 11:38:00,
2013-09-08 04:40:00,57.3,56.5,30.10,NNE,19,0.0,0.0,97,0.00,,---,0.00,0.00,VWS V14.01,2013-09-08 11:40:00,
2013-09-08 04:43:00,57.6,57.0,30.09,East,81,0.0,3.0,98,0.00,,---,0.00,0.00,VWS V14.01,2013-09-08 11:43:00,
2013-09-08 04:45:00,56.9,56.1,30.10,NNE,19,0.0,0.0,97,0.00,,---,0.00,0.00,VWS V14.01,2013-09-08 11:45:00,
2013-09-08 04:48:00,57.5,56.9,30.10,East,80,0.0,0.0,98,0.00,,---,0.00,0.00,VWS V14.01,2013-09-08 11:48:00,
2013-09-08 04:50:00,56.9,56.3,30.10,NNE,19,0.0,0.0,98,0.00,,---,0.00,0.00,VWS V14.01,2013-09-08 11:50:00,
2013-09-08 04:53:00,57.5,56.9,30.10,East,80,0.0,1.0,98,0.00,,---,0.00,0.00,VWS V14.01,2013-09-08 11:53:00,
2013-09-08 04:55:00,57.1,56.5,30.10,NNE,18,0.0,0.0,98,0.00,,---,0.00,0.00,VWS V14.01,2013-09-08 11:55:00,
2013-09-08 04:58:00,57.5,56.9,30.10,ENE,77,0.0,2.0,98,0.00,,---,0.00,0.00,VWS V14.01,2013-09-08 11:58:00,
2013-09-08 05:00:00,57.1,56.5,30.10,NNE,19,0.0,0.0,98,0.00,,---,0.00,0.00,VWS V14.01,2013-09-08 12:00:00,
2013-09-08 05:03:00,57.5,56.9,30.10,ENE,77,0.0,1.0,98,0.01,,---,0.01,0.00,VWS V14.01,2013-09-08 12:03:00,
2013-09-08 05:05:00,57.2,56.6,30.10,NNE,18,0.0,0.0,98,0.00,,---,0.00,0.00,VWS V14.01,2013-09-08 12:05:00,
2013-09-08 05:08:00,57.6,57.0,30.09,ENE,76,0.0,0.0,98,0.01,,---,0.01,0.00,VWS V14.01,2013-09-08 12:08:00,
2013-09-08 05:10:00,57.3,56.7,30.10,NNE,19,0.0,0.0,98,0.00,,---,0.00,0.00,VWS V14.01,2013-09-08 12:10:00,
2013-09-08 05:13:00,57.7,57.1,30.09,ENE,76,0.0,0.0,98,0.01,,---,0.01,0.00,VWS V14.01,2013-09-08 12:13:00,
2013-09-08 05:15:00,57.4,56.8,30.10,NNE,19,0.0,0.0,98,0.00,,---,0.00,0.00,VWS V14.01,2013-09-08 12:15:00,
2013-09-08 05:18:00,57.7,57.1,30.09,ENE,76,0.0,0.0,98,0.01,,---,0.01,0.00,VWS V14.01,2013-09-08 12:18:00,
2013-09-08 05:20:00,57.5,56.9,30.10,NNE,19,0.0,1.0,98,0.00,,---,0.00,0.00,VWS V14.01,2013-09-08 12:20:00,
2013-09-08 05:23:00,57.7,57.1,30.10,ENE,76,1.0,1.0,98,0.01,,---,0.01,0.00,VWS V14.01,2013-09-08 12:23:00,
2013-09-08 05:25:00,57.5,56.9,30.10,NNE,19,0.0,0.0,98,0.00,,---,0.00,0.00,VWS V14.01,2013-09-08 12:25:00,
2013-09-08 05:28:00,57.8,57.2,30.10,North,5,1.0,2.0,98,0.01,,---,0.01,0.00,VWS V14.01,2013-09-08 12:28:00,
2013-09-08 05:30:00,57.5,56.9,30.09,NNE,18,0.0,0.0,98,0.00,,---,0.00,0.00,VWS V14.01,2013-09-08 12:30:00,
2013-09-08 05:33:00,57.8,57.2,30.10,North,5,0.0,2.0,98,0.01,,---,0.01,0.00,VWS V14.01,2013-09-08 12:33:00,
2013-09-08 05:35:00,57.5,56.9,30.09,NNE,21,0.0,1.0,98,0.00,,---,0.00,0.00,VWS V14.01,2013-09-08 12:35:00,
2013-09-08 05:38:00,57.9,57.3,30.10,North,360,2.0,2.0,98,0.01,,---,0.01,0.00,VWS V14.01,2013-09-08 12:38:00,
2013-09-08 05:40:00,57.6,57.0,30.09,NNE,29,0.0,1.0,98,0.00,,---,0.00,0.00,VWS V14.01,2013-09-08 12:40:00,
2013-09-08 05:43:00,58.0,57.4,30.10,North,360,0.0,2.0,98,0.01,,---,0.01,0.00,VWS V14.01,2013-09-08 12:43:00,
2013-09-08 05:45:00,57.6,57.0,30.09,East,80,0.0,3.0,98,0.00,,---,0.00,0.00,VWS V14.01,2013-09-08 12:45:00,
2013-09-08 05:48:00,58.1,57.5,30.10,NE,49,2.0,3.0,98,0.01,,---,0.01,0.00,VWS V14.01,2013-09-08 12:48:00,
2013-09-08 05:50:00,57.6,57.0,30.10,East,80,0.0,0.0,98,0.00,,---,0.00,0.00,VWS V14.01,2013-09-08 12:50:00,
2013-09-08 05:53:00,58.2,57.6,30.10,NE,46,0.0,2.0,98,0.01,,---,0.01,0.00,VWS V14.01,2013-09-08 12:53:00,
2013-09-08 05:55:00,57.5,56.9,30.10,East,81,0.0,1.0,98,0.00,,---,0.00,0.00,VWS V14.01,2013-09-08 12:55:00,
2013-09-08 05:58:00,58.2,57.6,30.10,NE,46,0.0,1.0,98,0.01,,---,0.01,0.00,VWS V14.01,2013-09-08 12:58:00,
2013-09-08 06:00:00,57.5,56.9,30.10,ENE,77,0.0,2.0,98,0.00,,---,0.00,0.00,VWS V14.01,2013-09-08 13:00:00,
2013-09-08 06:03:00,58.3,57.7,30.10,NE,47,0.0,0.0,98,0.01,,---,0.01,0.00,VWS V14.01,2013-09-08 13:03:00,
2013-09-08 06:05:00,57.5,56.9,30.10,ENE,77,0.0,1.0,98,0.01,,---,0.01,0.00,VWS V14.01,2013-09-08 13:05:00,
2013-09-08 06:08:00,58.4,57.8,30.10,NE,46,0.0,0.0,98,0.00,,---,0.01,0.00,VWS V14.01,2013-09-08 13:08:00,
2013-09-08 06:10:00,57.6,57.0,30.09,ENE,76,0.0,0.0,98,0.01,,---,0.01,0.00,VWS V14.01,2013-09-08 13:10:00,
2013-09-08 06:13:00,58.5,57.9,30.10,NE,52,0.0,0.0,98,0.00,,---,0.01,0.00,VWS V14.01,2013-09-08 13:13:00,
2013-09-08 06:15:00,57.6,57.0,30.09,ENE,75,0.0,0.0,98,0.01,,---,0.01,0.00,VWS V14.01,2013-09-08 13:15:00,
2013-09-08 06:18:00,58.5,57.9,30.10,NE,51,0.0,0.0,98,0.00,,---,0.01,0.00,VWS V14.01,2013-09-08 13:18:00,
2013-09-08 06:20:00,57.7,57.1,30.09,ENE,77,0.0,0.0,98,0.01,,---,0.01,0.00,VWS V14.01,2013-09-08 13:20:00,
2013-09-08 06:23:00,58.5,58.2,30.10,NE,51,0.0,0.0,99,0.00,,---,0.01,0.00,VWS V14.01,2013-09-08 13:23:00,
2013-09-08 06:25:00,57.7,57.1,30.10,ENE,62,1.0,1.0,98,0.01,,---,0.01,0.00,VWS V14.01,2013-09-08 13:25:00,
2013-09-08 06:28:00,58.6,58.3,30.10,NE,52,0.0,0.0,99,0.00,,---,0.01,0.00,VWS V14.01,2013-09-08 13:28:00,
2013-09-08 06:30:00,57.8,57.2,30.10,North,5,1.0,2.0,98,0.01,,---,0.01,0.00,VWS V14.01,2013-09-08 13:30:00,
2013-09-08 06:33:00,58.6,58.3,30.10,NE,52,0.0,0.0,99,0.00,,---,0.01,0.00,VWS V14.01,2013-09-08 13:33:00,
2013-09-08 06:35:00,57.8,57.2,30.10,North,5,0.0,2.0,98,0.01,,---,0.01,0.00,VWS V14.01,2013-09-08 13:35:00,
2013-09-08 06:38:00,58.6,58.3,30.10,NE,51,0.0,0.0,99,0.00,,---,0.01,0.00,VWS V14.01,2013-09-08 13:38:00,
2013-09-08 06:40:00,57.9,57.3,30.10,North,360,2.0,2.0,98,0.01,,---,0.01,0.00,VWS V14.01,2013-09-08 13:40:00,
2013-09-08 06:43:00,58.7,58.4,30.10,NE,51,0.0,0.0,99,0.00,,---,0.01,0.00,VWS V14.01,2013-09-08 13:43:00,
2013-09-08 06:45:00,58.0,57.4,30.10,North,360,0.0,2.0,98,0.01,,---,0.01,0.00,VWS V14.01,2013-09-08 13:45:00,
2013-09-08 06:48:00,58.7,58.4,30.10,NE,51,0.0,0.0,99,0.00,,---,0.01,5.00,VWS V14.01,2013-09-08 13:48:00,
2013-09-08 06:50:00,58.1,57.5,30.10,NE,49,2.0,3.0,98,0.01,,---,0.01,0.00,VWS V14.01,2013-09-08 13:50:00,
2013-09-08 06:53:00,58.7,58.4,30.10,NE,50,0.0,0.0,99,0.00,,---,0.01,7.00,VWS V14.01,2013-09-08 13:53:00,
2013-09-08 06:55:00,58.2,57.6,30.10,NE,46,0.0,2.0,98,0.01,,---,0.01,0.00,VWS V14.01,2013-09-08 13:55:00,
2013-09-08 06:58:00,58.7,58.4,30.10,NE,52,0.0,0.0,99,0.00,,---,0.01,9.00,VWS V14.01,2013-09-08 13:58:00,
2013-09-08 07:00:00,58.3,57.7,30.10,NE,46,0.0,1.0,98,0.01,,---,0.01,0.00,VWS V14.01,2013-09-08 14:00:00,
2013-09-08 07:03:00,58.8,58.5,30.10,NE,51,0.0,0.0,99,0.00,,---,0.01,14.00,VWS V14.01,2013-09-08 14:03:00,
2013-09-08 07:05:00,58.3,57.7,30.10,NE,46,0.0,0.0,98,0.01,,---,0.01,0.00,VWS V14.01,2013-09-08 14:05:00,
2013-09-08 07:08:00,58.8,58.5,30.11,NE,51,0.0,0.0,99,0.00,,---,0.01,16.00,VWS V14.01,2013-09-08 14:08:00,
2013-09-08 07:10:00,58.4,57.8,30.10,NE,46,0.0,0.0,98,0.00,,---,0.01,0.00,VWS V14.01,2013-09-08 14:10:00,
2013-09-08 07:13:00,58.9,58.6,30.11,NE,51,0.0,0.0,99,0.00,,---,0.01,23.00,VWS V14.01,2013-09-08 14:13:00,
2013-09-08 07:15:00,58.5,57.9,30.10,NE,51,0.0,0.0,98,0.00,,---,0.01,0.00,VWS V14.01,2013-09-08 14:15:00,
2013-09-08 07:18:00,58.9,58.6,30.11,NE,52,0.0,0.0,99,0.00,,---,0.01,18.00,VWS V14.01,2013-09-08 14:18:00,
2013-09-08 07:20:00,58.5,57.9,30.10,NE,50,0.0,0.0,98,0.00,,---,0.01,0.00,VWS V14.01,2013-09-08 14:20:00,
2013-09-08 07:23:00,59.0,58.7,30.11,NE,51,0.0,0.0,99,0.00,,---,0.01,33.00,VWS V14.01,2013-09-08 14:23:00,
2013-09-08 07:25:00,58.6,58.3,30.10,NE,51,0.0,0.0,99,0.00,,---,0.01,0.00,VWS V14.01,2013-09-08 14:25:00,
2013-09-08 07:28:00,59.0,58.7,30.11,NE,51,0.0,0.0,99,0.00,,---,0.01,21.00,VWS V14.01,2013-09-08 14:28:00,
2013-09-08 07:30:00,58.6,58.3,30.10,NE,52,0.0,0.0,99,0.00,,---,0.01,0.00,VWS V14.01,2013-09-08 14:30:00,
2013-09-08 07:33:00,59.1,58.8,30.11,NE,51,0.0,0.0,99,0.00,,---,0.01,26.00,VWS V14.01,2013-09-08 14:33:00,
2013-09-08 07:35:00,58.6,58.3,30.10,NE,52,0.0,0.0,99,0.00,,---,0.01,0.00,VWS V14.01,2013-09-08 14:35:00,
2013-09-08 07:38:00,59.2,58.9,30.11,NE,51,0.0,1.0,99,0.00,,---,0.01,28.00,VWS V14.01,2013-09-08 14:38:00,
2013-09-08 07:40:00,58.7,58.4,30.10,NE,52,0.0,0.0,99,0.00,,---,0.01,0.00,VWS V14.01,2013-09-08 14:40:00,
2013-09-08 07:43:00,59.3,59.0,30.11,NE,52,0.0,0.0,99,0.00,,---,0.01,23.00,VWS V14.01,2013-09-08 14:43:00,
2013-09-08 07:45:00,58.7,58.4,30.10,NE,50,0.0,0.0,99,0.00,,---,0.01,0.00,VWS V14.01,2013-09-08 14:45:00,
2013-09-08 07:48:00,59.3,59.0,30.11,NE,51,0.0,0.0,99,0.00,,---,0.01,32.00,VWS V14.01,2013-09-08 14:48:00,
2013-09-08 07:50:00,58.7,58.4,30.10,NE,51,0.0,0.0,99,0.00,,---,0.01,5.00,VWS V14.01,2013-09-08 14:50:00,
2013-09-08 07:53:00,59.4,59.1,30.11,NE,51,0.0,0.0,99,0.00,,---,0.01,33.00,VWS V14.01,2013-09-08 14:53:00,
2013-09-08 07:55:00,58.7,58.4,30.10,NE,52,0.0,0.0,99,0.00,,---,0.01,7.00,VWS V14.01,2013-09-08 14:55:00,
2013-09-08 07:58:00,59.4,59.1,30.11,NE,52,0.0,0.0,99,0.00,,---,0.01,44.00,VWS V14.01,2013-09-08 14:58:00,
2013-09-08 08:00:00,58.7,58.4,30.10,NE,52,0.0,0.0,99,0.00,,---,0.01,9.00,VWS V14.01,2013-09-08 15:00:00,
2013-09-08 08:03:00,59.4,59.1,30.11,NE,51,0.0,0.0,99,0.00,,---,0.01,51.00,VWS V14.01,2013-09-08 15:03:00,
2013-09-08 08:05:00,58.8,58.5,30.10,NE,52,0.0,0.0,99,0.00,,---,0.01,14.00,VWS V14.01,2013-09-08 15:05:00,
2013-09-08 08:08:00,59.5,59.2,30.11,NE,50,0.0,0.0,99,0.00,,---,0.01,56.00,VWS V14.01,2013-09-08 15:08:00,
2013-09-08 08:10:00,58.8,58.5,30.11,NE,52,0.0,0.0,99,0.00,,---,0.01,16.00,VWS V14.01,2013-09-08 15:10:00,
2013-09-08 08:13:00,59.6,59.3,30.11,NE,50,0.0,0.0,99,0.00,,---,0.01,63.00,VWS V14.01,2013-09-08 15:13:00,
2013-09-08 08:15:00,58.9,58.6,30.11,NE,50,0.0,0.0,99,0.00,,---,0.01,23.00,VWS V14.01,2013-09-08 15:15:00,
2013-09-08 08:18:00,59.8,59.5,30.11,NE,51,0.0,0.0,99,0.00,,---,0.01,54.00,VWS V14.01,2013-09-08 15:18:00,
2013-09-08 08:20:00,58.9,58.6,30.11,NE,51,0.0,0.0,99,0.00,,---,0.01,18.00,VWS V14.01,2013-09-08 15:20:00,
2013-09-08 08:23:00,59.8,59.5,30.11,NE,51,0.0,2.0,99,0.00,,---,0.01,63.00,VWS V14.01,2013-09-08 15:23:00,
2013-09-08 08:25:00,59.0,58.7,30.11,NE,51,0.0,0.0,99,0.00,,---,0.01,33.00,VWS V14.01,2013-09-08 15:25:00,
2013-09-08 08:28:00,59.8,59.5,30.11,NNE,26,1.0,3.0,99,0.00,,---,0.01,69.00,VWS V14.01,2013-09-08 15:28:00,
2013-09-08 08:30:00,59.0,58.7,30.11,NE,51,0.0,0.0,99,0.00,,---,0.01,21.00,VWS V14.01,2013-09-08 15:30:00,
2013-09-08 08:33:00,59.9,59.6,30.12,NNE,25,0.0,2.0,99,0.00,,---,0.01,70.00,VWS V14.01,2013-09-08 15:33:00,
2013-09-08 08:35:00,59.1,58.8,30.11,NE,51,0.0,0.0,99,0.00,,---,0.01,26.00,VWS V14.01,2013-09-08 15:35:00,
2013-09-08 08:38:00,59.9,59.6,30.12,NNE,26,0.0,2.0,99,0.00,,---,0.01,76.00,VWS V14.01,2013-09-08 15:38:00,
2013-09-08 08:40:00,59.2,58.9,30.11,NE,51,0.0,1.0,99,0.00,,---,0.01,28.00,VWS V14.01,2013-09-08 15:40:00,
2013-09-08 08:43:00,59.9,59.6,30.12,NNE,24,3.0,3.0,99,0.00,,---,0.01,76.00,VWS V14.01,2013-09-08 15:43:00,
2013-09-08 08:45:00,59.3,59.0,30.11,NE,52,0.0,0.0,99,0.00,,---,0.01,23.00,VWS V14.01,2013-09-08 15:45:00,
2013-09-08 08:48:00,59.9,59.6,30.12,NNE,24,1.0,3.0,99,0.00,,---,0.01,79.00,VWS V14.01,2013-09-08 15:48:00,
2013-09-08 08:50:00,59.3,59.0,30.11,NE,52,0.0,0.0,99,0.00,,---,0.01,32.00,VWS V14.01,2013-09-08 15:50:00,
2013-09-08 08:53:00,59.9,59.6,30.12,NNE,25,0.0,2.0,99,0.00,,---,0.01,98.00,VWS V14.01,2013-09-08 15:53:00,
2013-09-08 08:55:00,59.4,59.1,30.11,NE,51,0.0,0.0,99,0.00,,---,0.01,35.00,VWS V14.01,2013-09-08 15:55:00,
2013-09-08 08:58:00,60.0,59.7,30.12,NNE,25,0.0,2.0,99,0.00,,---,0.01,111.00,VWS V14.01,2013-09-08 15:58:00,
2013-09-08 09:00:00,59.4,59.1,30.11,NE,51,0.0,0.0,99,0.00,,---,0.01,44.00,VWS V14.01,2013-09-08 16:00:00,
2013-09-08 09:03:00,60.1,59.5,30.12,NNE,25,0.0,1.0,98,0.00,,---,0.01,127.00,VWS V14.01,2013-09-08 16:03:00,
2013-09-08 09:05:00,59.4,59.1,30.11,NE,50,0.0,0.0,99,0.00,,---,0.01,51.00,VWS V14.01,2013-09-08 16:05:00,
2013-09-08 09:08:00,60.2,59.6,30.12,NNE,25,0.0,1.0,98,0.00,,---,0.01,125.00,VWS V14.01,2013-09-08 16:08:00,
2013-09-08 09:10:00,59.5,59.2,30.11,NE,51,0.0,0.0,99,0.00,,---,0.01,56.00,VWS V14.01,2013-09-08 16:10:00,
2013-09-08 09:13:00,60.2,59.6,30.13,NNE,25,0.0,2.0,98,0.00,,---,0.01,111.00,VWS V14.01,2013-09-08 16:13:00,
2013-09-08 09:15:00,59.6,59.3,30.11,NE,50,0.0,0.0,99,0.00,,---,0.01,63.00,VWS V14.01,2013-09-08 16:15:00,
2013-09-08 09:18:00,60.3,59.7,30.13,NNE,22,0.0,2.0,98,0.00,,---,0.01,107.00,VWS V14.01,2013-09-08 16:18:00,
2013-09-08 09:20:00,59.8,59.5,30.11,NE,51,0.0,0.0,99,0.00,,---,0.01,54.00,VWS V14.01,2013-09-08 16:20:00,
2013-09-08 09:23:00,60.3,59.7,30.13,NNE,22,0.0,1.0,98,0.00,,---,0.01,116.00,VWS V14.01,2013-09-08 16:23:00,
2013-09-08 09:25:00,59.8,59.5,30.11,NE,51,0.0,2.0,99,0.00,,---,0.01,63.00,VWS V14.01,2013-09-08 16:25:00,
2013-09-08 09:28:00,60.3,59.7,30.13,NNE,22,0.0,0.0,98,0.00,,---,0.01,109.00,VWS V14.01,2013-09-08 16:28:00,
2013-09-08 09:30:00,59.8,59.5,30.11,NNE,26,2.0,3.0,99,0.00,,---,0.01,69.00,VWS V14.01,2013-09-08 16:30:00,
2013-09-08 09:33:00,60.5,59.9,30.13,NNE,22,1.0,1.0,98,0.00,,---,0.01,120.00,VWS V14.01,2013-09-08 16:33:00,
2013-09-08 09:35:00,59.8,59.5,30.12,NNE,26,0.0,2.0,99,0.00,,---,0.01,70.00,VWS V14.01,2013-09-08 16:35:00,
2013-09-08 09:38:00,60.5,59.7,30.13,NNE,13,0.0,2.0,97,0.00,,---,0.01,132.00,VWS V14.01,2013-09-08 16:38:00,
2013-09-08 09:40:00,59.9,59.6,30.12,NNE,25,0.0,2.0,99,0.00,,---,0.01,76.00,VWS V14.01,2013-09-08 16:40:00,
2013-09-08 09:43:00,60.5,59.7,30.12,NNE,12,0.0,0.0,97,0.00,,---,0.01,132.00,VWS V14.01,2013-09-08 16:43:00,
2013-09-08 09:45:00,59.9,59.6,30.12,NNE,24,3.0,3.0,99,0.00,,---,0.01,76.00,VWS V14.01,2013-09-08 16:45:00,
2013-09-08 09:48:00,60.7,59.8,30.12,NNE,13,1.0,1.0,97,0.00,,---,0.01,127.00,VWS V14.01,2013-09-08 16:48:00,
2013-09-08 09:50:00,59.9,59.6,30.12,NNE,25,0.0,3.0,99,0.00,,---,0.01,79.00,VWS V14.01,2013-09-08 16:50:00,
2013-09-08 09:53:00,60.9,60.0,30.13,North,5,1.0,2.0,97,0.00,,---,0.01,120.00,VWS V14.01,2013-09-08 16:53:00,
2013-09-08 09:55:00,59.9,59.6,30.12,NNE,24,0.0,2.0,99,0.00,,---,0.01,98.00,VWS V14.01,2013-09-08 16:55:00,
2013-09-08 09:58:00,61.0,60.2,30.13,North,5,0.0,2.0,97,0.00,,---,0.01,125.00,VWS V14.01,2013-09-08 16:58:00,
2013-09-08 10:00:00,60.0,59.7,30.12,NNE,25,0.0,2.0,99,0.00,,---,0.01,116.00,VWS V14.01,2013-09-08 17:00:00,
2013-09-08 10:03:00,61.0,59.9,30.13,North,5,0.0,1.0,96,0.00,,---,0.01,121.00,VWS V14.01,2013-09-08 17:03:00,
2013-09-08 10:05:00,60.1,59.5,30.12,NNE,25,0.0,1.0,98,0.00,,---,0.01,127.00,VWS V14.01,2013-09-08 17:05:00,
2013-09-08 10:08:00,61.2,60.3,30.13,North,5,0.0,0.0,97,0.00,,---,0.01,130.00,VWS V14.01,2013-09-08 17:08:00,
2013-09-08 10:10:00,60.2,59.6,30.12,NNE,25,0.0,1.0,98,0.00,,---,0.01,125.00,VWS V14.01,2013-09-08 17:10:00,
2013-09-08 10:13:00,61.3,60.2,30.13,North,5,0.0,1.0,96,0.00,,---,0.01,163.00,VWS V14.01,2013-09-08 17:13:00,
2013-09-08 10:15:00,60.2,59.6,30.13,NNE,25,0.0,2.0,98,0.00,,---,0.01,111.00,VWS V14.01,2013-09-08 17:15:00,
2013-09-08 10:18:00,61.2,60.0,30.13,WSW,252,0.0,3.0,96,0.00,,---,0.01,169.00,VWS V14.01,2013-09-08 17:18:00,
2013-09-08 10:20:00,60.2,59.6,30.13,NNE,22,0.0,2.0,98,0.00,,---,0.01,107.00,VWS V14.01,2013-09-08 17:20:00,
2013-09-08 10:23:00,61.4,60.2,30.13,WSW,251,0.0,0.0,96,0.00,,---,0.01,163.00,VWS V14.01,2013-09-08 17:23:00,
2013-09-08 10:25:00,60.3,59.7,30.13,NNE,22,0.0,1.0,98,0.00,,---,0.01,116.00,VWS V14.01,2013-09-08 17:25:00,
2013-09-08 10:28:00,61.6,60.2,30.13,WSW,251,0.0,1.0,95,0.00,,---,0.01,146.00,VWS V14.01,2013-09-08 17:28:00,
2013-09-08 10:30:00,60.4,59.8,30.13,NNE,22,0.0,0.0,98,0.00,,---,0.01,109.00,VWS V14.01,2013-09-08 17:30:00,
2013-09-08 10:33:00,61.8,60.4,30.13,WNW,294,0.0,2.0,95,0.00,,---,0.01,139.00,VWS V14.01,2013-09-08 17:33:00,
2013-09-08 10:35:00,60.5,59.9,30.13,NNE,22,1.0,1.0,98,0.00,,---,0.01,120.00,VWS V14.01,2013-09-08 17:35:00,
2013-09-08 10:38:00,62.0,60.6,30.13,NW,305,2.0,3.0,95,0.00,,---,0.01,134.00,VWS V14.01,2013-09-08 17:38:00,
2013-09-08 10:40:00,60.5,59.7,30.13,NNE,13,0.0,2.0,97,0.00,,---,0.01,130.00,VWS V14.01,2013-09-08 17:40:00,
2013-09-08 10:43:00,62.2,60.8,30.13,NW,313,1.0,3.0,95,0.00,,---,0.01,153.00,VWS V14.01,2013-09-08 17:43:00,
2013-09-08 10:45:00,60.5,59.7,30.12,NNE,13,0.0,0.0,97,0.00,,---,0.01,132.00,VWS V14.01,2013-09-08 17:45:00,
2013-09-08 10:48:00,62.1,60.4,30.13,NNW,344,3.0,6.0,94,0.00,,---,0.01,199.00,VWS V14.01,2013-09-08 17:48:00,
2013-09-08 10:50:00,60.7,59.8,30.12,NNE,12,0.0,1.0,97,0.00,,---,0.01,127.00,VWS V14.01,2013-09-08 17:50:00,
2013-09-08 10:53:00,61.9,60.2,30.13,North,349,2.0,5.0,94,0.00,,---,0.01,213.00,VWS V14.01,2013-09-08 17:53:00,
2013-09-08 10:55:00,60.9,60.0,30.13,North,5,0.0,2.0,97,0.00,,---,0.01,120.00,VWS V14.01,2013-09-08 17:55:00,
2013-09-08 10:58:00,62.2,60.8,30.13,North,355,2.0,3.0,95,0.00,,---,0.01,244.00,VWS V14.01,2013-09-08 17:58:00,
2013-09-08 11:00:00,61.0,60.2,30.13,North,5,0.0,2.0,97,0.00,,---,0.01,125.00,VWS V14.01,2013-09-08 18:00:00,
2013-09-08 11:03:00,62.2,60.5,30.13,North,360,3.0,4.0,94,0.00,,---,0.01,258.00,VWS V14.01,2013-09-08 18:03:00,
2013-09-08 11:05:00,61.0,59.8,30.13,North,5,0.0,1.0,96,0.00,,---,0.01,118.00,VWS V14.01,2013-09-08 18:05:00,
2013-09-08 11:08:00,62.2,60.5,30.13,NNW,345,0.0,3.0,94,0.00,,---,0.01,244.00,VWS V14.01,2013-09-08 18:08:00,
2013-09-08 11:10:00,61.2,60.3,30.13,North,5,0.0,0.0,97,0.00,,---,0.01,135.00,VWS V14.01,2013-09-08 18:10:00,
2013-09-08 11:13:00,62.4,60.7,30.13,NNW,343,0.0,3.0,94,0.00,,---,0.01,311.00,VWS V14.01,2013-09-08 18:13:00,
2013-09-08 11:15:00,61.3,60.2,30.13,North,5,1.0,1.0,96,0.00,,---,0.01,169.00,VWS V14.01,2013-09-08 18:15:00,
2013-09-08 11:18:00,62.6,60.8,30.13,NNW,343,0.0,2.0,94,0.00,,---,0.01,322.00,VWS V14.01,2013-09-08 18:18:00,
2013-09-08 11:20:00,61.2,60.0,30.13,WSW,252,0.0,3.0,96,0.00,,---,0.01,169.00,VWS V14.01,2013-09-08 18:20:00,
2013-09-08 11:23:00,63.4,62.0,30.13,NNW,344,0.0,1.0,95,0.00,,---,0.01,654.00,VWS V14.01,2013-09-08 18:23:00,
2013-09-08 11:25:00,61.4,60.2,30.13,WSW,251,0.0,0.0,96,0.00,,---,0.01,163.00,VWS V14.01,2013-09-08 18:25:00,
2013-09-08 11:28:00,63.7,61.3,30.13,NNW,343,1.0,2.0,92,0.00,,---,0.01,643.00,VWS V14.01,2013-09-08 18:28:00,
2013-09-08 11:30:00,61.6,60.2,30.13,WSW,252,0.0,1.0,95,0.00,,---,0.01,146.00,VWS V14.01,2013-09-08 18:30:00,
2013-09-08 11:33:00,64.1,61.1,30.13,WNW,290,3.0,3.0,90,0.00,,---,0.01,657.00,VWS V14.01,2013-09-08 18:33:00,
2013-09-08 11:35:00,61.8,60.4,30.13,WNW,294,0.0,2.0,95,0.00,,---,0.01,137.00,VWS V14.01,2013-09-08 18:35:00,
2013-09-08 11:38:00,64.3,61.3,30.13,WSW,239,3.0,3.0,90,0.00,,---,0.01,726.00,VWS V14.01,2013-09-08 18:38:00,
2013-09-08 11:40:00,62.0,60.6,30.13,NW,312,2.0,3.0,95,0.00,,---,0.01,134.00,VWS V14.01,2013-09-08 18:40:00,
2013-09-08 11:43:00,64.6,61.6,30.12,SSW,202,4.0,4.0,90,0.00,,---,0.01,679.00,VWS V14.01,2013-09-08 18:43:00,
2013-09-08 11:45:00,62.2,60.8,30.13,NW,322,1.0,3.0,95,0.00,,---,0.01,158.00,VWS V14.01,2013-09-08 18:45:00,
2013-09-08 11:48:00,65.1,62.4,30.12,SSW,195,0.0,2.0,91,0.00,,---,0.01,661.00,VWS V14.01,2013-09-08 18:48:00,
2013-09-08 11:50:00,62.1,60.4,30.13,NNW,344,3.0,6.0,94,0.00,,---,0.01,199.00,VWS V14.01,2013-09-08 18:50:00,
2013-09-08 11:53:00,65.6,62.3,30.13,West,273,0.0,2.0,89,0.00,,---,0.01,664.00,VWS V14.01,2013-09-08 18:53:00,
2013-09-08 11:55:00,61.9,60.2,30.13,North,11,3.0,5.0,94,0.00,,---,0.01,213.00,VWS V14.01,2013-09-08 18:55:00,
2013-09-08 11:58:00,66.0,62.0,30.12,NNW,329,2.0,4.0,87,0.00,,---,0.01,657.00,VWS V14.01,2013-09-08 18:58:00,
2013-09-08 12:00:00,62.2,60.8,30.13,North,355,3.0,3.0,95,0.00,,---,0.01,244.00,VWS V14.01,2013-09-08 19:00:00,
2013-09-08 12:03:00,66.6,62.0,30.12,NNE,23,3.0,4.0,85,0.00,,---,0.01,666.00,VWS V14.01,2013-09-08 19:03:00,
2013-09-08 12:05:00,62.2,60.5,30.13,North,360,3.0,4.0,94,0.00,,---,0.01,258.00,VWS V14.01,2013-09-08 19:05:00,
2013-09-08 12:08:00,66.8,61.8,30.12,NNE,32,0.0,2.0,84,0.00,,---,0.01,673.00,VWS V14.01,2013-09-08 19:08:00,
2013-09-08 12:10:00,62.2,60.5,30.13,NNW,345,0.0,3.0,94,0.00,,---,0.01,241.00,VWS V14.01,2013-09-08 19:10:00,
2013-09-08 12:13:00,67.5,63.2,30.12,SW,226,3.0,4.0,86,0.00,,---,0.01,673.00,VWS V14.01,2013-09-08 19:13:00,
2013-09-08 12:15:00,62.4,60.7,30.13,NNW,344,1.0,3.0,94,0.00,,---,0.01,306.00,VWS V14.01,2013-09-08 19:15:00,
2013-09-08 12:18:00,67.4,62.4,30.12,SW,225,2.0,3.0,84,0.00,,---,0.01,679.00,VWS V14.01,2013-09-08 19:18:00,
2013-09-08 12:20:00,62.7,61.0,30.13,NNW,343,0.0,2.0,94,0.00,,---,0.01,322.00,VWS V14.01,2013-09-08 19:20:00,
2013-09-08 12:23:00,67.7,62.4,30.12,West,259,2.0,3.0,83,0.00,,---,0.01,684.00,VWS V14.01,2013-09-08 19:23:00,
2013-09-08 12:25:00,63.3,61.5,30.13,NNW,344,0.0,1.0,94,0.00,,---,0.01,654.00,VWS V14.01,2013-09-08 19:25:00,
2013-09-08 12:28:00,68.3,62.6,30.12,WNW,288,1.0,2.0,82,0.00,,---,0.01,687.00,VWS V14.01,2013-09-08 19:28:00,
2013-09-08 12:30:00,63.7,61.3,30.13,NNW,343,1.0,2.0,92,0.00,,---,0.01,643.00,VWS V14.01,2013-09-08 19:30:00,
2013-09-08 12:33:00,69.1,62.7,30.11,WNW,297,1.0,1.0,80,0.00,,---,0.01,689.00,VWS V14.01,2013-09-08 19:33:00,
2013-09-08 12:35:00,64.0,61.0,30.13,WNW,290,2.0,3.0,90,0.00,,---,0.01,657.00,VWS V14.01,2013-09-08 19:35:00,
2013-09-08 12:38:00,69.6,63.5,30.11,SSW,194,1.0,1.0,81,0.00,,---,0.01,694.00,VWS V14.01,2013-09-08 19:38:00,
2013-09-08 12:40:00,64.3,61.3,30.13,SW,220,3.0,3.0,90,0.00,,---,0.01,726.00,VWS V14.01,2013-09-08 19:40:00,
2013-09-08 12:43:00,69.8,63.0,30.11,NW,321,0.0,6.0,79,0.00,,---,0.01,689.00,VWS V14.01,2013-09-08 19:43:00,
2013-09-08 12:45:00,64.7,61.7,30.12,SSW,200,2.0,4.0,90,0.00,,---,0.01,673.00,VWS V14.01,2013-09-08 19:45:00,
2013-09-08 12:48:00,70.0,64.3,30.11,SW,218,4.0,7.0,82,0.00,,---,0.01,689.00,VWS V14.01,2013-09-08 19:48:00,
2013-09-08 12:50:00,65.2,62.5,30.12,SSW,196,0.0,2.0,91,0.00,,---,0.01,656.00,VWS V14.01,2013-09-08 19:50:00,
2013-09-08 12:53:00,70.1,62.9,30.11,SW,227,1.0,5.0,78,0.00,,---,0.01,700.00,VWS V14.01,2013-09-08 19:53:00,
2013-09-08 12:55:00,65.6,61.6,30.13,West,273,1.0,2.0,87,0.00,,---,0.01,671.00,VWS V14.01,2013-09-08 19:55:00,
2013-09-08 12:58:00,70.4,63.2,30.11,WSW,237,3.0,4.0,78,0.00,,---,0.01,696.00,VWS V14.01,2013-09-08 19:58:00,
2013-09-08 13:00:00,66.1,61.8,30.12,NNW,329,0.0,4.0,86,0.00,,---,0.01,657.00,VWS V14.01,2013-09-08 20:00:00,
2013-09-08 13:03:00,70.8,63.2,30.11,SW,225,4.0,5.0,77,0.00,,---,0.01,698.00,VWS V14.01,2013-09-08 20:03:00,
2013-09-08 13:05:00,66.6,62.0,30.12,NNE,32,0.0,4.0,85,0.00,,---,0.01,666.00,VWS V14.01,2013-09-08 20:05:00,
2013-09-08 13:08:00,71.0,63.4,30.11,WSW,252,3.0,4.0,77,0.00,,---,0.01,698.00,VWS V14.01,2013-09-08 20:08:00,
2013-09-08 13:10:00,66.8,61.8,30.12,NNE,32,0.0,2.0,84,0.00,,---,0.01,673.00,VWS V14.01,2013-09-08 20:10:00,
2013-09-08 13:13:00,71.2,63.6,30.11,WNW,284,4.0,5.0,77,0.00,,---,0.01,694.00,VWS V14.01,2013-09-08 20:13:00,
2013-09-08 13:15:00,67.5,63.2,30.12,SW,227,3.0,4.0,86,0.00,,---,0.01,677.00,VWS V14.01,2013-09-08 20:15:00,
2013-09-08 13:18:00,71.5,63.9,30.11,WNW,300,4.0,6.0,77,0.00,,---,0.01,698.00,VWS V14.01,2013-09-08 20:18:00,
2013-09-08 13:20:00,67.4,62.4,30.12,SW,225,2.0,3.0,84,0.00,,---,0.01,680.00,VWS V14.01,2013-09-08 20:20:00,
2013-09-08 13:23:00,71.8,62.3,30.11,WNW,286,0.0,6.0,72,0.00,,---,0.01,698.00,VWS V14.01,2013-09-08 20:23:00,
2013-09-08 13:25:00,67.7,62.4,30.12,West,259,1.0,3.0,83,0.00,,---,0.01,684.00,VWS V14.01,2013-09-08 20:25:00,
2013-09-08 13:28:00,72.3,62.4,30.11,North,11,4.0,5.0,71,0.00,,---,0.01,698.00,VWS V14.01,2013-09-08 20:28:00,
2013-09-08 13:30:00,68.4,62.7,30.12,WNW,288,0.0,2.0,82,0.00,,---,0.01,689.00,VWS V14.01,2013-09-08 20:30:00,
2013-09-08 13:33:00,72.1,62.6,30.10,WNW,296,0.0,4.0,72,0.00,,---,0.01,694.00,VWS V14.01,2013-09-08 20:33:00,
2013-09-08 13:35:00,69.2,62.8,30.11,WNW,297,0.0,1.0,80,0.00,,---,0.01,689.00,VWS V14.01,2013-09-08 20:35:00,
2013-09-08 13:38:00,72.3,62.8,30.10,NW,320,3.0,3.0,72,0.00,,---,0.01,696.00,VWS V14.01,2013-09-08 20:38:00,
2013-09-08 13:40:00,69.6,63.2,30.11,SSW,194,1.0,1.0,80,0.00,,---,0.01,694.00,VWS V14.01,2013-09-08 20:40:00,
2013-09-08 13:43:00,72.8,62.9,30.11,NNW,346,4.0,5.0,71,0.00,,---,0.01,693.00,VWS V14.01,2013-09-08 20:43:00,
2013-09-08 13:45:00,69.8,63.7,30.11,NW,315,1.0,6.0,81,0.00,,---,0.01,689.00,VWS V14.01,2013-09-08 20:45:00,
2013-09-08 13:48:00,73.2,63.6,30.11,North,11,1.0,4.0,72,0.00,,---,0.01,691.00,VWS V14.01,2013-09-08 20:48:00,
2013-09-08 13:50:00,70.1,64.4,30.11,West,259,5.0,7.0,82,0.00,,---,0.01,687.00,VWS V14.01,2013-09-08 20:50:00,
2013-09-08 13:53:00,73.1,62.3,30.10,WNW,286,0.0,4.0,69,0.00,,---,0.01,691.00,VWS V14.01,2013-09-08 20:53:00,
2013-09-08 13:55:00,70.0,62.8,30.11,WSW,238,1.0,5.0,78,0.00,,---,0.01,696.00,VWS V14.01,2013-09-08 20:55:00,
2013-09-08 13:58:00,73.3,62.9,30.10,WNW,285,2.0,6.0,70,0.00,,---,0.01,693.00,VWS V14.01,2013-09-08 20:58:00,
2013-09-08 14:00:00,70.4,63.2,30.11,SW,215,3.0,4.0,78,0.00,,---,0.01,700.00,VWS V14.01,2013-09-08 21:00:00,
2013-09-08 14:03:00,73.6,64.0,30.10,NW,315,3.0,5.0,72,0.00,,---,0.01,689.00,VWS V14.01,2013-09-08 21:03:00,
2013-09-08 14:05:00,70.8,62.9,30.11,SW,227,4.0,5.0,76,0.00,,---,0.01,698.00,VWS V14.01,2013-09-08 21:05:00,
2013-09-08 14:08:00,73.1,62.7,30.10,WNW,297,3.0,6.0,70,0.00,,---,0.01,687.00,VWS V14.01,2013-09-08 21:08:00,
2013-09-08 14:10:00,71.1,63.9,30.11,WSW,250,0.0,4.0,78,0.00,,---,0.01,698.00,VWS V14.01,2013-09-08 21:10:00,
2013-09-08 14:13:00,73.2,62.4,30.10,NNW,333,2.0,7.0,69,0.00,,---,0.01,682.00,VWS V14.01,2013-09-08 21:13:00,
2013-09-08 14:15:00,71.2,62.9,30.11,WNW,284,2.0,5.0,75,0.00,,---,0.01,694.00,VWS V14.01,2013-09-08 21:15:00,
2013-09-08 14:18:00,73.3,62.5,30.10,NNW,342,3.0,5.0,69,0.00,,---,0.01,694.00,VWS V14.01,2013-09-08 21:18:00,
2013-09-08 14:20:00,71.5,63.9,30.11,WNW,302,6.0,6.0,77,0.00,,---,0.01,698.00,VWS V14.01,2013-09-08 21:20:00,
2013-09-08 14:23:00,73.4,62.2,30.10,West,265,5.0,7.0,68,0.00,,---,0.01,696.00,VWS V14.01,2013-09-08 21:23:00,
2013-09-08 14:25:00,71.8,62.3,30.11,WNW,286,0.0,6.0,72,0.00,,---,0.01,698.00,VWS V14.01,2013-09-08 21:25:00,
2013-09-08 14:28:00,73.7,63.7,30.09,SW,227,3.0,5.0,71,0.00,,---,0.01,499.00,VWS V14.01,2013-09-08 21:28:00,
2013-09-08 14:30:00,72.2,62.3,30.11,North,10,3.0,5.0,71,0.00,,---,0.01,698.00,VWS V14.01,2013-09-08 21:30:00,
2013-09-08 14:33:00,73.8,62.6,30.09,West,278,4.0,8.0,68,0.00,,---,0.01,707.00,VWS V14.01,2013-09-08 21:33:00,
2013-09-08 14:35:00,72.2,62.7,30.10,WNW,296,2.0,4.0,72,0.00,,---,0.01,694.00,VWS V14.01,2013-09-08 21:35:00,
2013-09-08 14:38:00,73.6,63.2,30.09,West,260,3.0,6.0,70,0.00,,---,0.01,497.00,VWS V14.01,2013-09-08 21:38:00,
2013-09-08 14:40:00,72.3,62.4,30.10,NW,324,2.0,3.0,71,0.00,,---,0.01,696.00,VWS V14.01,2013-09-08 21:40:00,
2013-09-08 14:43:00,73.4,63.0,30.09,SW,221,4.0,8.0,70,0.00,,---,0.01,592.00,VWS V14.01,2013-09-08 21:43:00,
2013-09-08 14:45:00,72.8,63.3,30.11,NNW,346,2.0,5.0,72,0.00,,---,0.01,693.00,VWS V14.01,2013-09-08 21:45:00,
2013-09-08 14:48:00,73.7,64.1,30.09,WSW,240,6.0,7.0,72,0.00,,---,0.01,615.00,VWS V14.01,2013-09-08 21:48:00,
2013-09-08 14:50:00,73.1,62.7,30.11,North,11,0.0,4.0,70,0.00,,---,0.01,691.00,VWS V14.01,2013-09-08 21:50:00,
2013-09-08 14:53:00,73.9,63.5,30.09,WSW,247,2.0,7.0,70,0.00,,---,0.01,635.00,VWS V14.01,2013-09-08 21:53:00,
2013-09-08 14:55:00,73.0,62.2,30.10,WNW,287,0.0,4.0,69,0.00,,---,0.01,691.00,VWS V14.01,2013-09-08 21:55:00,
2013-09-08 14:58:00,74.0,64.0,30.09,South,180,2.0,4.0,71,0.00,,---,0.01,628.00,VWS V14.01,2013-09-08 21:58:00,
2013-09-08 15:00:00,73.3,62.9,30.10,WNW,293,2.0,6.0,70,0.00,,---,0.01,687.00,VWS V14.01,2013-09-08 22:00:00,
2013-09-08 15:03:00,74.5,63.7,30.08,NW,315,4.0,6.0,69,0.00,,---,0.01,617.00,VWS V14.01,2013-09-08 22:03:00,
2013-09-08 15:05:00,73.7,64.1,30.10,WNW,288,3.0,5.0,72,0.00,,---,0.01,691.00,VWS V14.01,2013-09-08 22:05:00,
2013-09-08 15:08:00,74.8,63.1,30.08,NNW,335,4.0,6.0,67,0.00,,---,0.01,612.00,VWS V14.01,2013-09-08 22:08:00,
2013-09-08 15:10:00,73.1,63.2,30.10,NW,309,3.0,6.0,71,0.00,,---,0.01,686.00,VWS V14.01,2013-09-08 22:10:00,
2013-09-08 15:13:00,74.8,62.7,30.08,NNW,329,4.0,5.0,66,0.00,,---,0.01,601.00,VWS V14.01,2013-09-08 22:13:00,
2013-09-08 15:15:00,73.2,62.0,30.10,NNW,333,3.0,7.0,68,0.00,,---,0.01,682.00,VWS V14.01,2013-09-08 22:15:00,
2013-09-08 15:18:00,74.8,64.4,30.08,NNW,333,3.0,6.0,70,0.00,,---,0.01,592.00,VWS V14.01,2013-09-08 22:18:00,
2013-09-08 15:20:00,73.4,62.2,30.10,NW,311,1.0,5.0,68,0.00,,---,0.01,694.00,VWS V14.01,2013-09-08 22:20:00,
2013-09-08 15:23:00,74.9,63.2,30.08,NW,319,4.0,6.0,67,0.00,,---,0.01,584.00,VWS V14.01,2013-09-08 22:23:00,
2013-09-08 15:25:00,73.4,63.0,30.10,West,276,5.0,7.0,70,0.00,,---,0.01,696.00,VWS V14.01,2013-09-08 22:25:00,
2013-09-08 15:28:00,74.9,64.5,30.08,WNW,284,2.0,4.0,70,0.00,,---,0.01,570.00,VWS V14.01,2013-09-08 22:28:00,
2013-09-08 15:30:00,73.7,63.7,30.09,SSW,199,2.0,5.0,71,0.00,,---,0.01,499.00,VWS V14.01,2013-09-08 22:30:00,
2013-09-08 15:33:00,74.9,63.6,30.08,WSW,252,1.0,5.0,68,0.00,,---,0.01,408.00,VWS V14.01,2013-09-08 22:33:00,
2013-09-08 15:35:00,73.7,62.5,30.09,West,278,0.0,8.0,68,0.00,,---,0.01,520.00,VWS V14.01,2013-09-08 22:35:00,
2013-09-08 15:38:00,74.6,62.5,30.07,NW,316,3.0,5.0,66,0.00,,---,0.01,555.00,VWS V14.01,2013-09-08 22:38:00,
2013-09-08 15:40:00,73.6,63.2,30.09,West,277,4.0,6.0,70,0.00,,---,0.01,497.00,VWS V14.01,2013-09-08 22:40:00,
2013-09-08 15:43:00,74.7,62.6,30.08,SSW,203,7.0,10.0,66,0.00,,---,0.01,552.00,VWS V14.01,2013-09-08 22:43:00,
2013-09-08 15:45:00,73.4,63.0,30.09,SSW,193,3.0,8.0,70,0.00,,---,0.01,592.00,VWS V14.01,2013-09-08 22:45:00,
2013-09-08 15:48:00,74.6,62.9,30.07,WSW,250,4.0,9.0,67,0.00,,---,0.01,541.00,VWS V14.01,2013-09-08 22:48:00,
2013-09-08 15:50:00,73.8,64.6,30.09,SW,225,7.0,7.0,73,0.00,,---,0.01,615.00,VWS V14.01,2013-09-08 22:50:00,
2013-09-08 15:53:00,74.9,62.3,30.07,West,273,3.0,8.0,65,0.00,,---,0.01,533.00,VWS V14.01,2013-09-08 22:53:00,
2013-09-08 15:55:00,73.9,63.9,30.09,West,272,3.0,7.0,71,0.00,,---,0.01,635.00,VWS V14.01,2013-09-08 22:55:00,
2013-09-08 15:58:00,74.6,62.9,30.07,SW,221,4.0,9.0,67,0.00,,---,0.01,520.00,VWS V14.01,2013-09-08 22:58:00,
2013-09-08 16:00:00,74.0,63.6,30.09,South,180,1.0,4.0,70,0.00,,---,0.01,628.00,VWS V14.01,2013-09-08 23:00:00,
2013-09-08 16:03:00,74.9,62.3,30.07,SSW,206,4.0,7.0,65,0.00,,---,0.01,510.00,VWS V14.01,2013-09-08 23:03:00,
2013-09-08 16:05:00,74.6,63.8,30.08,NW,313,5.0,6.0,69,0.00,,---,0.01,617.00,VWS V14.01,2013-09-08 23:05:00,
2013-09-08 16:08:00,74.8,62.3,30.07,SW,225,0.0,10.0,65,0.00,,---,0.01,496.00,VWS V14.01,2013-09-08 23:08:00,
2013-09-08 16:10:00,74.8,63.1,30.08,NW,325,5.0,6.0,67,0.00,,---,0.01,606.00,VWS V14.01,2013-09-08 23:10:00,
2013-09-08 16:13:00,75.1,63.0,30.07,WSW,247,1.0,7.0,66,0.00,,---,0.01,489.00,VWS V14.01,2013-09-08 23:13:00,
2013-09-08 16:15:00,74.8,62.7,30.08,WNW,298,3.0,5.0,66,0.00,,---,0.01,599.00,VWS V14.01,2013-09-08 23:15:00,
2013-09-08 16:18:00,75.3,62.7,30.07,SSW,207,6.0,7.0,65,0.00,,---,0.01,478.00,VWS V14.01,2013-09-08 23:18:00,
2013-09-08 16:20:00,74.8,64.4,30.08,NW,319,2.0,6.0,70,0.00,,---,0.01,592.00,VWS V14.01,2013-09-08 23:20:00,
2013-09-08 16:23:00,75.3,62.7,30.07,WSW,250,5.0,6.0,65,0.00,,---,0.01,466.00,VWS V14.01,2013-09-08 23:23:00,
2013-09-08 16:25:00,74.9,62.8,30.08,NW,318,3.0,6.0,66,0.00,,---,0.01,584.00,VWS V14.01,2013-09-08 23:25:00,
2013-09-08 16:28:00,75.5,64.2,30.07,NW,310,3.0,7.0,68,0.00,,---,0.01,452.00,VWS V14.01,2013-09-08 23:28:00,
2013-09-08 16:30:00,74.9,64.1,30.08,NW,317,5.0,5.0,69,0.00,,---,0.01,570.00,VWS V14.01,2013-09-08 23:30:00,
2013-09-08 16:33:00,75.4,62.8,30.06,SW,232,5.0,7.0,65,0.00,,---,0.01,443.00,VWS V14.01,2013-09-08 23:33:00,
2013-09-08 16:35:00,74.9,63.6,30.08,SW,232,4.0,5.0,68,0.00,,---,0.01,408.00,VWS V14.01,2013-09-08 23:35:00,
2013-09-08 16:38:00,75.7,64.4,30.06,NW,315,2.0,4.0,68,0.00,,---,0.01,432.00,VWS V14.01,2013-09-08 23:38:00,
2013-09-08 16:40:00,74.6,62.5,30.07,West,275,5.0,5.0,66,0.00,,---,0.01,555.00,VWS V14.01,2013-09-08 23:40:00,
2013-09-08 16:43:00,75.7,62.7,30.06,NNW,327,3.0,8.0,64,0.00,,---,0.01,418.00,VWS V14.01,2013-09-08 23:43:00,
2013-09-08 16:45:00,74.6,62.5,30.08,SW,219,5.0,10.0,66,0.00,,---,0.01,550.00,VWS V14.01,2013-09-08 23:45:00,
2013-09-08 16:48:00,76.0,63.8,30.06,NW,311,2.0,5.0,66,0.00,,---,0.01,406.00,VWS V14.01,2013-09-08 23:48:00,
2013-09-08 16:50:00,74.6,62.9,30.07,SW,236,4.0,9.0,67,0.00,,---,0.01,538.00,VWS V14.01,2013-09-08 23:50:00,
2013-09-08 16:53:00,75.9,63.3,30.06,SW,223,3.0,5.0,65,0.00,,---,0.01,396.00,VWS V14.01,2013-09-08 23:53:00,
2013-09-08 16:55:00,74.8,62.3,30.07,West,281,2.0,8.0,65,0.00,,---,0.01,531.00,VWS V14.01,2013-09-08 23:55:00,
2013-09-08 16:58:00,75.5,62.5,30.06,WNW,290,1.0,4.0,64,0.00,,---,0.01,380.00,VWS V14.01,2013-09-08 23:58:00,
2013-09-08 17:00:00,74.7,63.0,30.07,SW,227,6.0,9.0,67,0.00,,---,0.01,520.00,VWS V14.01,2013-09-09 00:00:00,
2013-09-08 17:03:00,75.7,63.5,30.06,NW,308,3.0,4.0,66,0.00,,---,0.01,367.00,VWS V14.01,2013-09-09 00:03:00,
2013-09-08 17:05:00,74.9,62.8,30.07,SSW,194,4.0,7.0,66,0.00,,---,0.01,510.00,VWS V14.01,2013-09-09 00:05:00,
2013-09-08 17:08:00,75.9,63.3,30.06,WNW,296,2.0,6.0,65,0.00,,---,0.01,357.00,VWS V14.01,2013-09-09 00:08:00,
2013-09-08 17:10:00,74.7,62.2,30.07,SW,225,3.0,10.0,65,0.00,,---,0.01,496.00,VWS V14.01,2013-09-09 00:10:00,
2013-09-08 17:13:00,75.9,62.4,30.06,NNW,327,5.0,5.0,63,0.00,,---,0.01,345.00,VWS V14.01,2013-09-09 00:13:00,
2013-09-08 17:15:00,75.1,63.0,30.07,WSW,248,1.0,7.0,66,0.00,,---,0.01,489.00,VWS V14.01,2013-09-09 00:15:00,
2013-09-08 17:18:00,75.8,62.3,30.05,WSW,240,3.0,5.0,63,0.00,,---,0.01,327.00,VWS V14.01,2013-09-09 00:18:00,
2013-09-08 17:20:00,75.3,62.7,30.07,South,190,4.0,7.0,65,0.00,,---,0.01,476.00,VWS V14.01,2013-09-09 00:20:00,
2013-09-08 17:23:00,75.8,61.9,30.05,NW,316,3.0,7.0,62,0.00,,---,0.01,320.00,VWS V14.01,2013-09-09 00:23:00,
2013-09-08 17:25:00,75.3,62.7,30.07,WSW,249,5.0,6.0,65,0.00,,---,0.01,396.00,VWS V14.01,2013-09-09 00:25:00,
2013-09-08 17:28:00,75.8,61.4,30.06,NNW,328,0.0,5.0,61,0.00,,---,0.01,287.00,VWS V14.01,2013-09-09 00:28:00,
2013-09-08 17:30:00,75.6,64.3,30.07,NW,315,6.0,7.0,68,0.00,,---,0.01,448.00,VWS V14.01,2013-09-09 00:30:00,
2013-09-08 17:33:00,76.2,63.6,30.05,NNW,334,3.0,6.0,65,0.00,,---,0.01,271.00,VWS V14.01,2013-09-09 00:33:00,
2013-09-08 17:35:00,75.4,62.8,30.06,WSW,252,4.0,7.0,65,0.00,,---,0.01,443.00,VWS V14.01,2013-09-09 00:35:00,
2013-09-08 17:38:00,76.0,61.6,30.05,NW,323,3.0,7.0,61,0.00,,---,0.01,287.00,VWS V14.01,2013-09-09 00:38:00,
2013-09-08 17:40:00,75.7,62.7,30.06,NW,309,2.0,4.0,64,0.00,,---,0.01,432.00,VWS V14.01,2013-09-09 00:40:00,
2013-09-08 17:43:00,76.0,61.6,30.05,NW,321,4.0,4.0,61,0.00,,---,0.01,269.00,VWS V14.01,2013-09-09 00:43:00,
2013-09-08 17:45:00,75.7,62.7,30.06,NNW,327,2.0,8.0,64,0.00,,---,0.01,418.00,VWS V14.01,2013-09-09 00:45:00,
2013-09-08 17:48:00,76.0,61.1,30.05,NW,318,5.0,6.0,60,0.00,,---,0.01,230.00,VWS V14.01,2013-09-09 00:48:00,
2013-09-08 17:50:00,76.0,63.8,30.06,NW,311,1.0,5.0,66,0.00,,---,0.01,406.00,VWS V14.01,2013-09-09 00:50:00,
2013-09-08 17:53:00,75.7,61.8,30.05,NW,311,0.0,5.0,62,0.00,,---,0.01,239.00,VWS V14.01,2013-09-09 00:53:00,
2013-09-08 17:55:00,75.9,63.3,30.06,WSW,238,4.0,5.0,65,0.00,,---,0.01,396.00,VWS V14.01,2013-09-09 00:55:00,
2013-09-08 17:58:00,75.8,61.4,30.05,NW,319,2.0,4.0,61,0.00,,---,0.01,221.00,VWS V14.01,2013-09-09 00:58:00,
2013-09-08 18:00:00,75.5,62.5,30.06,WNW,290,0.0,4.0,64,0.00,,---,0.01,378.00,VWS V14.01,2013-09-09 01:00:00,
2013-09-08 18:03:00,75.7,60.8,30.05,NW,321,1.0,5.0,60,0.00,,---,0.01,174.00,VWS V14.01,2013-09-09 01:03:00,
2013-09-08 18:05:00,75.7,63.5,30.06,NW,308,2.0,4.0,66,0.00,,---,0.01,367.00,VWS V14.01,2013-09-09 01:05:00,
2013-09-08 18:08:00,75.6,61.7,30.05,NNW,329,1.0,6.0,62,0.00,,---,0.01,183.00,VWS V14.01,2013-09-09 01:08:00,
2013-09-08 18:10:00,75.9,62.4,30.06,WNW,295,2.0,6.0,63,0.00,,---,0.01,357.00,VWS V14.01,2013-09-09 01:10:00,
2013-09-08 18:13:00,75.6,60.8,30.05,NW,316,2.0,6.0,60,0.00,,---,0.01,165.00,VWS V14.01,2013-09-09 01:13:00,
2013-09-08 18:15:00,75.9,63.3,30.06,NNW,327,3.0,5.0,65,0.00,,---,0.01,345.00,VWS V14.01,2013-09-09 01:15:00,
2013-09-08 18:18:00,75.8,60.9,30.05,NNW,330,1.0,4.0,60,0.00,,---,0.01,151.00,VWS V14.01,2013-09-09 01:18:00,
2013-09-08 18:20:00,75.8,62.3,30.06,WSW,243,4.0,5.0,63,0.00,,---,0.01,327.00,VWS V14.01,2013-09-09 01:20:00,
2013-09-08 18:23:00,75.7,60.4,30.05,NNW,336,3.0,5.0,59,0.00,,---,0.01,132.00,VWS V14.01,2013-09-09 01:23:00,
2013-09-08 18:25:00,75.8,61.9,30.05,NW,304,4.0,7.0,62,0.00,,---,0.01,320.00,VWS V14.01,2013-09-09 01:25:00,
2013-09-08 18:28:00,75.5,60.7,30.05,NNW,342,2.0,4.0,60,0.00,,---,0.01,109.00,VWS V14.01,2013-09-09 01:28:00,
2013-09-08 18:30:00,75.8,61.4,30.06,NNW,328,0.0,5.0,61,0.00,,---,0.01,279.00,VWS V14.01,2013-09-09 01:30:00,
2013-09-08 18:33:00,75.5,60.2,30.05,NNW,338,2.0,4.0,59,0.00,,---,0.01,104.00,VWS V14.01,2013-09-09 01:33:00,
2013-09-08 18:35:00,76.2,63.6,30.05,NNW,330,5.0,6.0,65,0.00,,---,0.01,251.00,VWS V14.01,2013-09-09 01:35:00,
2013-09-08 18:38:00,75.4,60.6,30.04,NNW,329,3.0,3.0,60,0.00,,---,0.01,74.00,VWS V14.01,2013-09-09 01:38:00,
2013-09-08 18:40:00,76.0,61.6,30.05,NW,322,1.0,7.0,61,0.00,,---,0.01,283.00,VWS V14.01,2013-09-09 01:40:00,
2013-09-08 18:43:00,75.1,59.8,30.04,NW,311,3.0,5.0,59,0.00,,---,0.01,28.00,VWS V14.01,2013-09-09 01:43:00,
2013-09-08 18:45:00,76.0,61.6,30.05,NNW,346,4.0,4.0,61,0.00,,---,0.01,269.00,VWS V14.01,2013-09-09 01:45:00,
2013-09-08 18:48:00,74.5,60.2,30.04,NNW,333,1.0,4.0,61,0.00,,---,0.01,21.00,VWS V14.01,2013-09-09 01:48:00,
2013-09-08 18:50:00,76.0,61.1,30.05,NW,318,5.0,6.0,60,0.00,,---,0.01,230.00,VWS V14.01,2013-09-09 01:50:00,
2013-09-08 18:53:00,73.9,60.1,30.04,NW,309,0.0,3.0,62,0.00,,---,0.01,19.00,VWS V14.01,2013-09-09 01:53:00,
2013-09-08 18:55:00,75.7,61.8,30.05,NW,311,0.0,5.0,62,0.00,,---,0.01,239.00,VWS V14.01,2013-09-09 01:55:00,
2013-09-08 18:58:00,73.6,59.8,30.04,NW,309,0.0,1.0,62,0.00,,---,0.01,19.00,VWS V14.01,2013-09-09 01:58:00,
2013-09-08 19:00:00,75.8,61.4,30.05,NW,319,3.0,4.0,61,0.00,,---,0.01,221.00,VWS V14.01,2013-09-09 02:00:00,
2013-09-08 19:03:00,73.5,59.2,30.04,NW,309,0.0,0.0,61,0.00,,---,0.01,18.00,VWS V14.01,2013-09-09 02:03:00,
2013-09-08 19:05:00,75.8,60.9,30.05,NNW,338,4.0,5.0,60,0.00,,---,0.01,181.00,VWS V14.01,2013-09-09 02:05:00,
2013-09-08 19:08:00,73.3,59.5,30.04,NW,309,0.0,0.0,62,0.00,,---,0.01,21.00,VWS V14.01,2013-09-09 02:08:00,
2013-09-08 19:10:00,75.6,61.7,30.05,NW,307,4.0,6.0,62,0.00,,---,0.01,183.00,VWS V14.01,2013-09-09 02:10:00,
2013-09-08 19:13:00,73.3,59.5,30.04,NW,320,0.0,2.0,62,0.00,,---,0.01,21.00,VWS V14.01,2013-09-09 02:13:00,
2013-09-08 19:15:00,75.6,60.8,30.05,NW,316,1.0,6.0,60,0.00,,---,0.01,165.00,VWS V14.01,2013-09-09 02:15:00,
2013-09-08 19:18:00,73.2,59.9,30.04,NW,320,0.0,0.0,63,0.00,,---,0.01,18.00,VWS V14.01,2013-09-09 02:18:00,
2013-09-08 19:20:00,75.8,61.4,30.05,NNW,330,3.0,4.0,61,0.00,,---,0.01,151.00,VWS V14.01,2013-09-09 02:20:00,
2013-09-08 19:23:00,73.0,59.7,30.04,NW,320,0.0,0.0,63,0.00,,---,0.01,12.00,VWS V14.01,2013-09-09 02:23:00,
2013-09-08 19:25:00,75.7,60.8,30.05,NW,315,3.0,5.0,60,0.00,,---,0.01,132.00,VWS V14.01,2013-09-09 02:25:00,
2013-09-08 19:28:00,72.7,59.8,30.04,NW,320,0.0,0.0,64,0.00,,---,0.01,9.00,VWS V14.01,2013-09-09 02:28:00,
2013-09-08 19:30:00,75.5,60.7,30.05,NNW,341,1.0,4.0,60,0.00,,---,0.01,109.00,VWS V14.01,2013-09-09 02:30:00,
2013-09-08 19:33:00,72.1,60.1,30.04,NW,320,0.0,0.0,66,0.00,,---,0.01,5.00,VWS V14.01,2013-09-09 02:33:00,
2013-09-08 19:35:00,75.5,60.2,30.05,NNW,338,1.0,4.0,59,0.00,,---,0.01,100.00,VWS V14.01,2013-09-09 02:35:00,
2013-09-08 19:38:00,71.8,60.3,30.04,NW,320,0.0,0.0,67,0.00,,---,0.01,0.00,VWS V14.01,2013-09-09 02:38:00,
2013-09-08 19:40:00,75.4,60.6,30.04,NW,315,5.0,5.0,60,0.00,,---,0.01,65.00,VWS V14.01,2013-09-09 02:40:00,
2013-09-08 19:43:00,71.7,60.6,30.04,NW,320,0.0,0.0,68,0.00,,---,0.01,0.00,VWS V14.01,2013-09-09 02:43:00,
2013-09-08 19:45:00,75.1,59.8,30.04,NNW,340,4.0,5.0,59,0.00,,---,0.01,28.00,VWS V14.01,2013-09-09 02:45:00,
2013-09-08 19:48:00,71.0,60.7,30.04,NW,320,0.0,0.0,70,0.00,,---,0.01,0.00,VWS V14.01,2013-09-09 02:48:00,
2013-09-08 19:50:00,74.5,60.2,30.04,NNW,333,0.0,4.0,61,0.00,,---,0.01,21.00,VWS V14.01,2013-09-09 02:50:00,
2013-09-08 19:53:00,70.5,60.7,30.04,NW,320,0.0,0.0,71,0.00,,---,0.01,0.00,VWS V14.01,2013-09-09 02:53:00,
2013-09-08 19:55:00,73.9,59.6,30.04,NW,309,0.0,3.0,61,0.00,,---,0.01,19.00,VWS V14.01,2013-09-09 02:55:00,
2013-09-08 19:58:00,69.9,61.2,30.04,NW,320,0.0,0.0,74,0.00,,---,0.01,0.00,VWS V14.01,2013-09-09 02:58:00,
2013-09-08 20:00:00,73.6,59.8,30.04,NW,309,0.0,1.0,62,0.00,,---,0.01,19.00,VWS V14.01,2013-09-09 03:00:00,
2013-09-08 20:03:00,69.5,60.9,30.04,NW,320,0.0,0.0,74,0.00,,---,0.01,0.00,VWS V14.01,2013-09-09 03:03:00,
2013-09-08 20:05:00,73.5,59.2,30.04,NW,309,0.0,0.0,61,0.00,,---,0.01,18.00,VWS V14.01,2013-09-09 03:05:00,
2013-09-08 20:08:00,69.5,60.9,30.04,NNW,329,0.0,0.0,74,0.00,,---,0.01,0.00,VWS V14.01,2013-09-09 03:08:00,
2013-09-08 20:10:00,73.3,59.5,30.04,NW,309,0.0,0.0,62,0.00,,---,0.01,21.00,VWS V14.01,2013-09-09 03:10:00,
2013-09-08 20:13:00,69.5,60.9,30.04,NNE,17,1.0,1.0,74,0.00,,---,0.01,0.00,VWS V14.01,2013-09-09 03:13:00,
2013-09-08 20:15:00,73.4,59.6,30.04,NW,320,0.0,2.0,62,0.00,,---,0.01,21.00,VWS V14.01,2013-09-09 03:15:00,
2013-09-08 20:18:00,69.4,60.8,30.04,NNE,17,0.0,1.0,74,0.00,,---,0.01,0.00,VWS V14.01,2013-09-09 03:18:00,
2013-09-08 20:20:00,73.2,59.9,30.04,NW,320,0.0,0.0,63,0.00,,---,0.01,16.00,VWS V14.01,2013-09-09 03:20:00,
2013-09-08 20:23:00,69.0,60.8,30.04,NNE,17,0.0,0.0,75,0.00,,---,0.01,0.00,VWS V14.01,2013-09-09 03:23:00,
2013-09-08 20:25:00,73.0,60.1,30.04,NW,320,0.0,0.0,64,0.00,,---,0.01,12.00,VWS V14.01,2013-09-09 03:25:00,
2013-09-08 20:28:00,68.6,60.7,30.04,NNE,17,0.0,0.0,76,0.00,,---,0.01,0.00,VWS V14.01,2013-09-09 03:28:00,
2013-09-08 20:30:00,72.7,59.8,30.04,NW,320,0.0,0.0,64,0.00,,---,0.01,9.00,VWS V14.01,2013-09-09 03:30:00,
2013-09-08 20:33:00,68.2,60.7,30.04,NNE,17,0.0,1.0,77,0.00,,---,0.01,0.00,VWS V14.01,2013-09-09 03:33:00,
2013-09-08 20:35:00,72.1,61.4,30.04,NW,320,0.0,0.0,69,0.00,,---,0.01,5.00,VWS V14.01,2013-09-09 03:35:00,
2013-09-08 20:38:00,67.8,60.7,30.04,NNE,17,0.0,0.0,78,0.00,,---,0.01,0.00,VWS V14.01,2013-09-09 03:38:00,
2013-09-08 20:40:00,71.8,60.3,30.04,NW,320,0.0,0.0,67,0.00,,---,0.01,0.00,VWS V14.01,2013-09-09 03:40:00,
2013-09-08 20:43:00,67.6,60.9,30.05,NNE,17,0.0,0.0,79,0.00,,---,0.01,0.00,VWS V14.01,2013-09-09 03:43:00,
2013-09-08 20:45:00,71.7,60.6,30.04,NW,320,0.0,0.0,68,0.00,,---,0.01,0.00,VWS V14.01,2013-09-09 03:45:00,
2013-09-08 20:48:00,66.7,60.7,30.05,NNE,17,1.0,1.0,81,0.00,,---,0.01,0.00,VWS V14.01,2013-09-09 03:48:00,
2013-09-08 20:50:00,71.0,60.7,30.04,NW,320,0.0,0.0,70,0.00,,---,0.01,0.00,VWS V14.01,2013-09-09 03:50:00,
2013-09-08 20:53:00,66.4,60.7,30.05,NNE,17,0.0,0.0,82,0.00,,---,0.01,0.00,VWS V14.01,2013-09-09 03:53:00,
2013-09-08 20:55:00,70.4,61.0,30.04,NW,320,0.0,0.0,72,0.00,,---,0.01,0.00,VWS V14.01,2013-09-09 03:55:00,
2013-09-08 20:58:00,66.2,60.9,30.05,NNE,17,0.0,0.0,83,0.00,,---,0.01,0.00,VWS V14.01,2013-09-09 03:58:00,
2013-09-08 21:00:00,69.9,61.2,30.04,NW,320,0.0,0.0,74,0.00,,---,0.01,0.00,VWS V14.01,2013-09-09 04:00:00,
2013-09-08 21:01:00,66.2,60.9,30.05,NNE,17,0.0,1.0,83,0.00,,---,0.01,0.00,VWS V14.01,2013-09-09 04:01:00,
2013-09-08 21:05:00,69.5,60.9,30.04,NW,320,0.0,0.0,74,0.00,,---,0.01,0.00,VWS V14.01,2013-09-09 04:05:00,
2013-09-08 21:06:00,66.4,60.7,30.05,ENE,59,1.0,2.0,82,0.00,,---,0.01,0.00,VWS V14.01,2013-09-09 04:06:00,
2013-09-08 21:10:00,69.5,60.9,30.04,NNW,329,0.0,0.0,74,0.00,,---,0.01,0.00,VWS V14.01,2013-09-09 04:10:00,
2013-09-08 21:11:00,66.6,60.9,30.05,ENE,59,0.0,0.0,82,0.00,,---,0.01,0.00,VWS V14.01,2013-09-09 04:11:00,
2013-09-08 21:15:00,69.5,60.9,30.04,NNE,17,1.0,1.0,74,0.00,,---,0.01,0.00,VWS V14.01,2013-09-09 04:15:00,
2013-09-08 21:16:00,66.3,61.0,30.05,ENE,59,0.0,0.0,83,0.00,,---,0.01,0.00,VWS V14.01,2013-09-09 04:16:00,
2013-09-08 21:20:00,69.4,60.8,30.04,NNE,17,0.0,1.0,74,0.00,,---,0.01,0.00,VWS V14.01,2013-09-09 04:20:00,
2013-09-08 21:21:00,66.1,60.8,30.05,ENE,59,0.0,0.0,83,0.00,,---,0.01,0.00,VWS V14.01,2013-09-09 04:21:00,
2013-09-08 21:25:00,69.0,60.8,30.04,NNE,17,0.0,0.0,75,0.00,,---,0.01,0.00,VWS V14.01,2013-09-09 04:25:00,
2013-09-08 21:26:00,66.1,60.8,30.05,ENE,59,1.0,1.0,83,0.00,,---,0.01,0.00,VWS V14.01,2013-09-09 04:26:00,
2013-09-08 21:28:00,66.1,60.8,30.05,ENE,59,1.0,1.0,83,0.00,,---,0.01,0.00,VWS V14.01,2013-09-09 04:28:00,
2013-09-08 21:30:00,68.5,60.7,30.04,NNE,17,0.0,0.0,76,0.00,,---,0.01,0.00,VWS V14.01,2013-09-09 04:30:00,
2013-09-08 21:33:00,66.1,60.8,30.05,ENE,59,1.0,2.0,83,0.00,,---,0.01,0.00,VWS V14.01,2013-09-09 04:33:00,
2013-09-08 21:35:00,68.1,60.6,30.04,NNE,17,0.0,1.0,77,0.00,,---,0.01,0.00,VWS V14.01,2013-09-09 04:35:00,
2013-09-08 21:38:00,66.1,60.8,30.05,ENE,59,2.0,2.0,83,0.00,,---,0.01,0.00,VWS V14.01,2013-09-09 04:38:00,
2013-09-08 21:40:00,67.7,60.6,30.04,NNE,17,0.0,0.0,78,0.00,,---,0.01,0.00,VWS V14.01,2013-09-09 04:40:00,
2013-09-08 21:43:00,65.9,60.6,30.05,ENE,59,0.0,2.0,83,0.00,,---,0.01,0.00,VWS V14.01,2013-09-09 04:43:00,
2013-09-08 21:45:00,67.5,60.8,30.05,NNE,17,0.0,0.0,79,0.00,,---,0.01,0.00,VWS V14.01,2013-09-09 04:45:00,
2013-09-08 21:48:00,65.6,60.6,30.05,ENE,59,1.0,2.0,84,0.00,,---,0.01,0.00,VWS V14.01,2013-09-09 04:48:00,
2013-09-08 21:50:00,66.6,60.6,30.05,NNE,17,0.0,1.0,81,0.00,,---,0.01,0.00,VWS V14.01,2013-09-09 04:50:00,
2013-09-08 21:53:00,65.3,60.3,30.05,ENE,59,0.0,1.0,84,0.00,,---,0.01,0.00,VWS V14.01,2013-09-09 04:53:00,
2013-09-08 21:55:00,66.4,60.7,30.05,NNE,17,0.0,0.0,82,0.00,,---,0.01,0.00,VWS V14.01,2013-09-09 04:55:00,
2013-09-08 21:58:00,65.1,60.5,30.05,ENE,60,1.0,1.0,85,0.00,,---,0.01,0.00,VWS V14.01,2013-09-09 04:58:00,
2013-09-08 22:00:00,66.2,60.9,30.05,NNE,17,0.0,0.0,83,0.00,,---,0.01,0.00,VWS V14.01,2013-09-09 05:00:00,
2013-09-08 22:03:00,65.0,60.4,30.05,ENE,60,0.0,1.0,85,0.00,,---,0.01,0.00,VWS V14.01,2013-09-09 05:03:00,
2013-09-08 22:05:00,66.3,60.7,30.05,NE,35,2.0,2.0,82,0.00,,---,0.01,0.00,VWS V14.01,2013-09-09 05:05:00,
2013-09-08 22:08:00,64.7,60.4,30.05,ENE,60,0.0,0.0,86,0.00,,---,0.01,0.00,VWS V14.01,2013-09-09 05:08:00,
2013-09-08 22:10:00,66.5,60.8,30.04,ENE,59,0.0,2.0,82,0.00,,---,0.01,0.00,VWS V14.01,2013-09-09 05:10:00,
2013-09-08 22:13:00,64.3,60.3,30.06,ENE,60,0.0,0.0,87,0.00,,---,0.01,0.00,VWS V14.01,2013-09-09 05:13:00,
2013-09-08 22:15:00,66.5,60.8,30.05,ENE,59,0.0,1.0,82,0.00,,---,0.01,0.00,VWS V14.01,2013-09-09 05:15:00,
2013-09-08 22:18:00,64.3,60.7,30.06,ENE,60,0.0,2.0,88,0.00,,---,0.01,0.00,VWS V14.01,2013-09-09 05:18:00,
2013-09-08 22:20:00,66.2,60.9,30.05,ENE,59,0.0,0.0,83,0.00,,---,0.01,0.00,VWS V14.01,2013-09-09 05:20:00,
2013-09-08 22:23:00,64.3,60.7,30.05,ENE,59,0.0,1.0,88,0.00,,---,0.01,0.00,VWS V14.01,2013-09-09 05:23:00,
2013-09-08 22:25:00,66.1,60.8,30.05,ENE,59,0.0,0.0,83,0.00,,---,0.01,0.00,VWS V14.01,2013-09-09 05:25:00,
2013-09-08 22:28:00,64.1,60.5,30.06,ENE,60,0.0,0.0,88,0.00,,---,0.01,0.00,VWS V14.01,2013-09-09 05:28:00,
2013-09-08 22:30:00,66.1,60.8,30.05,ENE,59,1.0,1.0,83,0.00,,---,0.01,0.00,VWS V14.01,2013-09-09 05:30:00,
2013-09-08 22:33:00,64.0,60.7,30.06,ENE,59,0.0,0.0,89,0.00,,---,0.01,0.00,VWS V14.01,2013-09-09 05:33:00,
2013-09-08 22:35:00,66.1,60.8,30.05,ENE,59,1.0,2.0,83,0.00,,---,0.01,0.00,VWS V14.01,2013-09-09 05:35:00,
2013-09-08 22:38:00,63.9,60.6,30.06,ENE,59,0.0,1.0,89,0.00,,---,0.01,0.00,VWS V14.01,2013-09-09 05:38:00,
2013-09-08 22:40:00,66.1,60.8,30.05,ENE,59,2.0,2.0,83,0.00,,---,0.01,0.00,VWS V14.01,2013-09-09 05:40:00,
2013-09-08 22:43:00,63.7,60.4,30.06,ENE,60,0.0,0.0,89,0.00,,---,0.01,0.00,VWS V14.01,2013-09-09 05:43:00,
2013-09-08 22:45:00,65.9,60.6,30.05,ENE,60,1.0,2.0,83,0.00,,---,0.01,0.00,VWS V14.01,2013-09-09 05:45:00,
2013-09-08 22:48:00,63.7,60.4,30.06,ENE,69,0.0,2.0,89,0.00,,---,0.01,0.00,VWS V14.01,2013-09-09 05:48:00,
2013-09-08 22:50:00,65.6,60.6,30.05,ENE,59,0.0,2.0,84,0.00,,---,0.01,0.00,VWS V14.01,2013-09-09 05:50:00,
2013-09-08 22:53:00,63.7,60.4,30.06,ENE,69,0.0,1.0,89,0.00,,---,0.01,0.00,VWS V14.01,2013-09-09 05:53:00,
2013-09-08 22:55:00,65.2,60.2,30.05,ENE,59,1.0,1.0,84,0.00,,---,0.01,0.00,VWS V14.01,2013-09-09 05:55:00,
2013-09-08 22:58:00,63.5,60.5,30.06,ENE,68,0.0,1.0,90,0.00,,---,0.01,0.00,VWS V14.01,2013-09-09 05:58:00,
2013-09-08 23:00:00,65.1,60.5,30.05,ENE,59,1.0,1.0,85,0.00,,---,0.01,0.00,VWS V14.01,2013-09-09 06:00:00,
2013-09-08 23:03:00,63.4,60.4,30.06,ENE,69,0.0,0.0,90,0.00,,---,0.01,0.00,VWS V14.01,2013-09-09 06:03:00,
2013-09-08 23:05:00,65.0,60.4,30.05,ENE,60,0.0,1.0,85,0.00,,---,0.01,0.00,VWS V14.01,2013-09-09 06:05:00,
2013-09-08 23:08:00,63.3,60.3,30.05,ENE,68,0.0,0.0,90,0.00,,---,0.01,0.00,VWS V14.01,2013-09-09 06:08:00,
2013-09-08 23:10:00,64.7,60.4,30.05,ENE,59,0.0,0.0,86,0.00,,---,0.01,0.00,VWS V14.01,2013-09-09 06:10:00,
2013-09-08 23:13:00,63.0,60.3,30.06,ENE,69,0.0,0.0,91,0.00,,---,0.01,0.00,VWS V14.01,2013-09-09 06:13:00,
2013-09-08 23:15:00,64.3,60.3,30.06,ENE,60,0.0,0.0,87,0.00,,---,0.01,0.00,VWS V14.01,2013-09-09 06:15:00,
2013-09-08 23:18:00,62.9,60.2,30.06,ENE,67,0.0,0.0,91,0.00,,---,0.01,0.00,VWS V14.01,2013-09-09 06:18:00,
2013-09-08 23:20:00,64.3,60.7,30.06,ENE,59,0.0,2.0,88,0.00,,---,0.01,0.00,VWS V14.01,2013-09-09 06:20:00,
2013-09-08 23:23:00,62.8,60.5,30.06,ENE,68,0.0,0.0,92,0.00,,---,0.01,0.00,VWS V14.01,2013-09-09 06:23:00,
2013-09-08 23:25:00,64.3,60.7,30.05,ENE,59,0.0,1.0,88,0.00,,---,0.01,0.00,VWS V14.01,2013-09-09 06:25:00,
2013-09-08 23:28:00,62.7,60.3,30.06,ENE,69,0.0,0.0,92,0.00,,---,0.01,0.00,VWS V14.01,2013-09-09 06:28:00,
2013-09-08 23:33:00,62.8,60.5,30.06,ENE,69,0.0,0.0,92,0.00,,---,0.01,0.00,VWS V14.01,2013-09-09 06:33:00,
2013-09-08 23:35:00,64.0,60.7,30.06,ENE,59,0.0,0.0,89,0.00,,---,0.01,0.00,VWS V14.01,2013-09-09 06:35:00,
2013-09-08 23:38:00,62.8,60.5,30.06,ENE,57,0.0,1.0,92,0.00,,---,0.01,0.00,VWS V14.01,2013-09-09 06:38:00,
2013-09-08 23:40:00,63.8,60.5,30.06,ENE,60,0.0,1.0,89,0.00,,---,0.01,0.00,VWS V14.01,2013-09-09 06:40:00,
2013-09-08 23:43:00,62.8,60.5,30.06,ENE,58,0.0,1.0,92,0.00,,---,0.01,0.00,VWS V14.01,2013-09-09 06:43:00,
2013-09-08 23:45:00,63.7,60.4,30.06,ENE,59,0.0,0.0,89,0.00,,---,0.01,0.00,VWS V14.01,2013-09-09 06:45:00,
2013-09-08 23:48:00,62.7,60.3,30.06,ENE,57,0.0,0.0,92,0.00,,---,0.01,0.00,VWS V14.01,2013-09-09 06:48:00,
2013-09-08 23:50:00,63.7,60.4,30.06,ENE,69,0.0,2.0,89,0.00,,---,0.01,0.00,VWS V14.01,2013-09-09 06:50:00,
2013-09-08 23:53:00,62.7,60.3,30.06,ENE,58,0.0,0.0,92,0.00,,---,0.01,0.00,VWS V14.01,2013-09-09 06:53:00,
2013-09-08 23:55:00,63.7,60.4,30.06,ENE,69,1.0,1.0,89,0.00,,---,0.01,0.00,VWS V14.01,2013-09-09 06:55:00,
2013-09-08 23:58:00,62.6,60.2,30.06,ENE,57,0.0,0.0,92,0.00,,---,0.01,0.00,VWS V14.01,2013-09-09 06:58:00,